Wetterdaten: Freitag, 03.03.2023
Datum Zeit Temp. Aussen Temp. o. S. Temp +5cm Feuchte Auss Luftdruck Regen Sonnenschein Regendauer Solar Windben Empfang
03.03.2023 00:00 1,2 C 0,0 C -3,3 C 90 % 1023,4 hPa 0,0 l/m 0 min 0 min 0 W/m 6,4 km/h (2 Bft) 97,87 %
03.03.2023 00:02 1,2 C 0,0 C -3,3 C 90 % 1023,4 hPa 0,0 l/m 0 min 0 min 0 W/m 16,1 km/h (3 Bft) 97,50 %
03.03.2023 00:04 1,2 C 0,0 C -3,3 C 90 % 1023,5 hPa 0,0 l/m 0 min 0 min 0 W/m 3,2 km/h (1 Bft) 95,74 %
03.03.2023 00:07 1,1 C 0,0 C -3,3 C 90 % 1023,5 hPa 0,0 l/m 0 min 0 min 0 W/m 6,4 km/h (2 Bft) 97,47 %
03.03.2023 00:08 1,1 C 0,0 C -3,3 C 90 % 1023,5 hPa 0,0 l/m 0 min 0 min 0 W/m 3,2 km/h (1 Bft) 100,00 %
03.03.2023 00:12 1,0 C 0,0 C -3,3 C 90 % 1023,6 hPa 0,0 l/m 0 min 0 min 0 W/m 12,9 km/h (3 Bft) 100,00 %
03.03.2023 00:14 1,0 C 0,0 C -3,3 C 90 % 1023,5 hPa 0,0 l/m 0 min 0 min 0 W/m 6,4 km/h (2 Bft) 97,87 %
03.03.2023 00:16 0,9 C 0,0 C -3,3 C 90 % 1023,6 hPa 0,0 l/m 0 min 0 min 0 W/m 9,7 km/h (2 Bft) 95,74 %
03.03.2023 00:18 0,9 C 0,0 C -3,3 C 90 % 1023,5 hPa 0,0 l/m 0 min 0 min 0 W/m 16,1 km/h (3 Bft) 100,00 %
03.03.2023 00:20 0,9 C 0,0 C -3,3 C 90 % 1023,6 hPa 0,0 l/m 0 min 0 min 0 W/m 12,9 km/h (3 Bft) 95,74 %
03.03.2023 00:22 0,9 C 0,0 C -3,3 C 90 % 1023,5 hPa 0,0 l/m 0 min 0 min 0 W/m 9,7 km/h (2 Bft) 97,83 %
03.03.2023 00:24 0,9 C 0,0 C -3,3 C 90 % 1023,5 hPa 0,0 l/m 0 min 0 min 0 W/m 9,7 km/h (2 Bft) 100,00 %
03.03.2023 00:26 0,8 C 0,0 C -3,3 C 91 % 1023,5 hPa 0,0 l/m 0 min 0 min 0 W/m 6,4 km/h (2 Bft) 97,87 %
03.03.2023 00:28 0,8 C 0,0 C -3,3 C 91 % 1023,6 hPa 0,0 l/m 0 min 0 min 0 W/m 6,4 km/h (2 Bft) 97,87 %
03.03.2023 00:30 0,8 C 0,0 C -3,3 C 91 % 1023,6 hPa 0,0 l/m 0 min 0 min 0 W/m 12,9 km/h (3 Bft) 100,00 %
03.03.2023 00:32 0,8 C 0,0 C -3,3 C 91 % 1023,6 hPa 0,0 l/m 0 min 0 min 0 W/m 9,7 km/h (2 Bft) 97,87 %
03.03.2023 00:34 0,8 C 0,0 C -3,3 C 91 % 1023,6 hPa 0,0 l/m 0 min 0 min 0 W/m 9,7 km/h (2 Bft) 100,00 %
03.03.2023 00:36 0,8 C 0,0 C -3,3 C 91 % 1023,6 hPa 0,0 l/m 0 min 0 min 0 W/m 12,9 km/h (3 Bft) 100,00 %
03.03.2023 00:38 0,8 C 0,0 C -3,3 C 91 % 1023,6 hPa 0,0 l/m 0 min 0 min 0 W/m 9,7 km/h (2 Bft) 97,87 %
03.03.2023 00:40 0,8 C 0,0 C -3,3 C 91 % 1023,6 hPa 0,0 l/m 0 min 0 min 0 W/m 12,9 km/h (3 Bft) 100,00 %
03.03.2023 00:42 0,8 C 0,0 C -3,3 C 91 % 1023,6 hPa 0,0 l/m 0 min 0 min 0 W/m 12,9 km/h (3 Bft) 100,00 %
03.03.2023 00:44 0,8 C 0,0 C -3,3 C 91 % 1023,6 hPa 0,0 l/m 0 min 0 min 0 W/m 6,4 km/h (2 Bft) 100,00 %
03.03.2023 00:46 0,8 C 0,0 C -3,3 C 92 % 1023,6 hPa 0,0 l/m 0 min 0 min 0 W/m 6,4 km/h (2 Bft) 100,00 %
03.03.2023 00:48 0,8 C 0,0 C -3,3 C 92 % 1023,6 hPa 0,0 l/m 0 min 0 min 0 W/m 6,4 km/h (2 Bft) 97,87 %
03.03.2023 00:50 0,7 C 0,0 C -3,3 C 92 % 1023,6 hPa 0,0 l/m 0 min 0 min 0 W/m 12,9 km/h (3 Bft) 100,00 %
03.03.2023 00:52 0,8 C 0,0 C -3,3 C 92 % 1023,6 hPa 0,0 l/m 0 min 0 min 0 W/m 16,1 km/h (3 Bft) 100,00 %
03.03.2023 00:54 0,8 C 0,0 C -3,3 C 92 % 1023,6 hPa 0,0 l/m 0 min 0 min 0 W/m 6,4 km/h (2 Bft) 100,00 %
03.03.2023 00:56 0,8 C 0,0 C -3,3 C 92 % 1023,5 hPa 0,0 l/m 0 min 0 min 0 W/m 12,9 km/h (3 Bft) 97,87 %
03.03.2023 00:58 0,8 C 0,0 C -3,3 C 92 % 1023,5 hPa 0,0 l/m 0 min 0 min 0 W/m 9,7 km/h (2 Bft) 93,62 %
03.03.2023 01:00 0,7 C 0,0 C -3,3 C 92 % 1023,6 hPa 0,0 l/m 0 min 0 min 0 W/m 9,7 km/h (2 Bft) 97,83 %
03.03.2023 01:02 0,8 C 0,0 C -3,3 C 92 % 1023,5 hPa 0,0 l/m 0 min 0 min 0 W/m 12,9 km/h (3 Bft) 97,87 %
03.03.2023 01:04 0,8 C 0,0 C -3,3 C 92 % 1023,5 hPa 0,0 l/m 0 min 0 min 0 W/m 6,4 km/h (2 Bft) 95,74 %
03.03.2023 01:06 0,8 C 0,0 C -3,3 C 92 % 1023,5 hPa 0,0 l/m 0 min 0 min 0 W/m 6,4 km/h (2 Bft) 95,74 %
03.03.2023 01:08 0,8 C 0,0 C -3,3 C 92 % 1023,6 hPa 0,0 l/m 0 min 0 min 0 W/m 12,9 km/h (3 Bft) 97,87 %
03.03.2023 01:10 0,8 C 0,0 C -3,3 C 92 % 1023,6 hPa 0,0 l/m 0 min 0 min 0 W/m 12,9 km/h (3 Bft) 97,87 %
03.03.2023 01:12 0,8 C 0,0 C -3,3 C 92 % 1023,6 hPa 0,0 l/m 0 min 0 min 0 W/m 6,4 km/h (2 Bft) 97,87 %
03.03.2023 01:14 0,8 C 0,0 C -3,3 C 92 % 1023,6 hPa 0,0 l/m 0 min 0 min 0 W/m 6,4 km/h (2 Bft) 97,87 %
03.03.2023 01:16 0,8 C 0,6 C -3,3 C 92 % 1023,6 hPa 0,0 l/m 0 min 0 min 0 W/m 16,1 km/h (3 Bft) 97,83 %
03.03.2023 01:18 0,8 C 0,6 C -3,3 C 92 % 1023,7 hPa 0,0 l/m 0 min 0 min 0 W/m 16,1 km/h (3 Bft) 97,87 %
03.03.2023 01:20 0,8 C 0,6 C -3,3 C 93 % 1023,7 hPa 0,0 l/m 0 min 0 min 0 W/m 16,1 km/h (3 Bft) 97,87 %
03.03.2023 01:22 0,8 C 0,6 C -2,8 C 93 % 1023,6 hPa 0,0 l/m 0 min 0 min 0 W/m 19,3 km/h (3 Bft) 97,87 %
03.03.2023 01:24 0,8 C 0,6 C -3,3 C 93 % 1023,6 hPa 0,0 l/m 0 min 0 min 0 W/m 16,1 km/h (3 Bft) 95,45 %
03.03.2023 01:26 0,8 C 0,6 C -2,8 C 93 % 1023,6 hPa 0,0 l/m 0 min 0 min 0 W/m 9,7 km/h (2 Bft) 95,92 %
03.03.2023 01:28 0,9 C 0,6 C -2,8 C 93 % 1023,6 hPa 0,0 l/m 0 min 0 min 0 W/m 12,9 km/h (3 Bft) 95,74 %
03.03.2023 01:30 0,8 C 0,6 C -2,8 C 93 % 1023,7 hPa 0,0 l/m 0 min 0 min 0 W/m 9,7 km/h (2 Bft) 97,87 %
03.03.2023 01:32 0,9 C 0,6 C -2,8 C 93 % 1023,7 hPa 0,0 l/m 0 min 0 min 0 W/m 12,9 km/h (3 Bft) 100,00 %
03.03.2023 01:34 0,9 C 0,6 C -2,8 C 93 % 1023,8 hPa 0,0 l/m 0 min 0 min 0 W/m 16,1 km/h (3 Bft) 97,87 %
03.03.2023 01:36 0,9 C 0,6 C -2,8 C 93 % 1023,8 hPa 0,0 l/m 0 min 0 min 0 W/m 3,2 km/h (1 Bft) 41,18 %
03.03.2023 01:38 0,9 C 0,6 C -2,8 C 93 % 1023,8 hPa 0,0 l/m 0 min 0 min 0 W/m 19,3 km/h (3 Bft) 94,87 %
03.03.2023 01:40 0,9 C 0,6 C -2,8 C 93 % 1023,8 hPa 0,0 l/m 0 min 0 min 0 W/m 12,9 km/h (3 Bft) 97,83 %
03.03.2023 01:42 0,9 C 0,6 C -2,8 C 93 % 1023,8 hPa 0,0 l/m 0 min 0 min 0 W/m 16,1 km/h (3 Bft) 93,62 %
03.03.2023 01:44 0,9 C 0,6 C -2,8 C 93 % 1023,9 hPa 0,0 l/m 0 min 0 min 0 W/m 12,9 km/h (3 Bft) 93,62 %
03.03.2023 01:46 0,9 C 0,6 C -2,8 C 93 % 1023,9 hPa 0,0 l/m 0 min 0 min 0 W/m 6,4 km/h (2 Bft) 95,74 %
03.03.2023 01:48 0,9 C 0,6 C -2,8 C 93 % 1023,8 hPa 0,0 l/m 0 min 0 min 0 W/m 12,9 km/h (3 Bft) 95,74 %
03.03.2023 01:50 0,9 C 0,6 C -2,8 C 93 % 1023,8 hPa 0,0 l/m 0 min 0 min 0 W/m 9,7 km/h (2 Bft) 95,74 %
03.03.2023 01:52 0,9 C 0,6 C -2,8 C 93 % 1023,8 hPa 0,0 l/m 0 min 0 min 0 W/m 3,2 km/h (1 Bft) 93,62 %
03.03.2023 01:54 0,9 C 0,6 C -2,8 C 93 % 1023,8 hPa 0,0 l/m 0 min 0 min 0 W/m 6,4 km/h (2 Bft) 95,74 %
03.03.2023 01:56 0,9 C 0,6 C -2,8 C 93 % 1023,9 hPa 0,0 l/m 0 min 0 min 0 W/m 16,1 km/h (3 Bft) 93,48 %
03.03.2023 01:58 0,9 C 0,6 C -2,8 C 93 % 1023,8 hPa 0,0 l/m 0 min 0 min 0 W/m 3,2 km/h (1 Bft) 97,87 %
03.03.2023 02:00 0,9 C 0,6 C -2,8 C 93 % 1023,9 hPa 0,0 l/m 0 min 0 min 0 W/m 9,7 km/h (2 Bft) 93,62 %
03.03.2023 02:02 0,9 C 0,6 C -2,8 C 93 % 1023,9 hPa 0,0 l/m 0 min 0 min 0 W/m 12,9 km/h (3 Bft) 89,36 %
03.03.2023 02:04 0,9 C 0,6 C -2,8 C 93 % 1024,0 hPa 0,0 l/m 0 min 0 min 0 W/m 12,9 km/h (3 Bft) 97,87 %
03.03.2023 02:06 0,9 C 0,6 C -2,8 C 93 % 1023,9 hPa 0,0 l/m 0 min 0 min 0 W/m 16,1 km/h (3 Bft) 97,87 %
03.03.2023 02:08 1,0 C 0,6 C -2,8 C 93 % 1023,9 hPa 0,0 l/m 0 min 0 min 0 W/m 6,4 km/h (2 Bft) 97,87 %
03.03.2023 02:10 0,9 C 0,6 C -2,8 C 93 % 1023,9 hPa 0,0 l/m 0 min 0 min 0 W/m 16,1 km/h (3 Bft) 93,48 %
03.03.2023 02:12 0,9 C 0,6 C -2,8 C 93 % 1023,9 hPa 0,0 l/m 0 min 0 min 0 W/m 9,7 km/h (2 Bft) 97,62 %
03.03.2023 02:14 1,0 C 0,6 C -2,8 C 93 % 1023,9 hPa 0,0 l/m 0 min 0 min 0 W/m 12,9 km/h (3 Bft) 97,87 %
03.03.2023 02:16 1,0 C 0,6 C -2,8 C 93 % 1023,9 hPa 0,0 l/m 0 min 0 min 0 W/m 16,1 km/h (3 Bft) 97,87 %
03.03.2023 02:18 1,0 C 0,6 C -2,8 C 93 % 1024,0 hPa 0,0 l/m 0 min 0 min 0 W/m 12,9 km/h (3 Bft) 95,74 %
03.03.2023 02:20 1,0 C 0,6 C -2,8 C 93 % 1024,0 hPa 0,0 l/m 0 min 0 min 0 W/m 12,9 km/h (3 Bft) 97,87 %
03.03.2023 02:22 1,0 C 0,6 C -2,8 C 93 % 1024,0 hPa 0,0 l/m 0 min 0 min 0 W/m 6,4 km/h (2 Bft) 97,83 %
03.03.2023 02:24 1,0 C 0,6 C -2,8 C 93 % 1023,9 hPa 0,0 l/m 0 min 0 min 0 W/m 6,4 km/h (2 Bft) 98,00 %
03.03.2023 02:26 1,0 C 0,6 C -2,8 C 93 % 1024,0 hPa 0,0 l/m 0 min 0 min 0 W/m 12,9 km/h (3 Bft) 95,74 %
03.03.2023 02:28 1,0 C 0,6 C -2,8 C 93 % 1023,9 hPa 0,0 l/m 0 min 0 min 0 W/m 16,1 km/h (3 Bft) 97,87 %
03.03.2023 02:30 1,0 C 0,6 C -2,8 C 93 % 1024,0 hPa 0,0 l/m 0 min 0 min 0 W/m 19,3 km/h (3 Bft) 97,87 %
03.03.2023 02:32 1,0 C 0,6 C -2,8 C 93 % 1024,0 hPa 0,0 l/m 0 min 0 min 0 W/m 12,9 km/h (3 Bft) 95,74 %
03.03.2023 02:34 1,0 C 0,6 C -2,8 C 93 % 1023,9 hPa 0,0 l/m 0 min 0 min 0 W/m 12,9 km/h (3 Bft) 95,65 %
03.03.2023 02:36 1,0 C 0,6 C -2,8 C 93 % 1023,9 hPa 0,0 l/m 0 min 0 min 0 W/m 9,7 km/h (2 Bft) 97,92 %
03.03.2023 02:38 1,0 C 0,6 C -2,8 C 93 % 1024,0 hPa 0,0 l/m 0 min 0 min 0 W/m 16,1 km/h (3 Bft) 100,00 %
03.03.2023 02:40 0,9 C 0,6 C -2,8 C 93 % 1023,9 hPa 0,0 l/m 0 min 0 min 0 W/m 16,1 km/h (3 Bft) 100,00 %
03.03.2023 02:42 0,9 C 0,6 C -2,8 C 93 % 1024,0 hPa 0,0 l/m 0 min 0 min 0 W/m 12,9 km/h (3 Bft) 100,00 %
03.03.2023 02:44 0,9 C 0,6 C -2,8 C 93 % 1024,0 hPa 0,0 l/m 0 min 0 min 0 W/m 6,4 km/h (2 Bft) 95,74 %
03.03.2023 02:46 0,9 C 0,6 C -2,8 C 93 % 1024,0 hPa 0,0 l/m 0 min 0 min 0 W/m 16,1 km/h (3 Bft) 100,00 %
03.03.2023 02:48 0,9 C 0,6 C -2,8 C 93 % 1024,0 hPa 0,0 l/m 0 min 0 min 0 W/m 9,7 km/h (2 Bft) 97,87 %
03.03.2023 02:50 0,9 C 0,6 C -2,8 C 93 % 1024,0 hPa 0,0 l/m 0 min 0 min 0 W/m 6,4 km/h (2 Bft) 100,00 %
03.03.2023 02:52 0,9 C 0,6 C -2,8 C 93 % 1024,1 hPa 0,0 l/m 0 min 0 min 0 W/m 16,1 km/h (3 Bft) 100,00 %
03.03.2023 02:54 0,9 C 0,6 C -2,8 C 93 % 1024,1 hPa 0,0 l/m 0 min 0 min 0 W/m 6,4 km/h (2 Bft) 98,21 %
03.03.2023 02:56 0,9 C 0,6 C -2,8 C 93 % 1024,0 hPa 0,0 l/m 0 min 0 min 0 W/m 9,7 km/h (2 Bft) 97,87 %
03.03.2023 02:58 0,9 C 0,6 C -2,8 C 93 % 1024,0 hPa 0,0 l/m 0 min 0 min 0 W/m 6,4 km/h (2 Bft) 97,87 %
03.03.2023 03:00 0,9 C 0,6 C -2,8 C 93 % 1024,1 hPa 0,0 l/m 0 min 0 min 0 W/m 12,9 km/h (3 Bft) 97,87 %
03.03.2023 03:02 0,9 C 0,6 C -2,8 C 93 % 1024,0 hPa 0,0 l/m 0 min 0 min 0 W/m 16,1 km/h (3 Bft) 97,83 %
03.03.2023 03:04 0,9 C 0,6 C -2,8 C 93 % 1024,0 hPa 0,0 l/m 0 min 0 min 0 W/m 9,7 km/h (2 Bft) 98,00 %
03.03.2023 03:06 0,9 C 0,6 C -2,8 C 93 % 1023,9 hPa 0,0 l/m 0 min 0 min 0 W/m 19,3 km/h (3 Bft) 97,87 %
03.03.2023 03:08 0,9 C 0,6 C -2,8 C 93 % 1023,9 hPa 0,0 l/m 0 min 0 min 0 W/m 22,5 km/h (4 Bft) 97,92 %
03.03.2023 03:10 0,9 C 0,6 C -2,8 C 93 % 1024,0 hPa 0,0 l/m 0 min 0 min 0 W/m 9,7 km/h (2 Bft) 95,74 %
03.03.2023 03:12 0,9 C 0,6 C -2,8 C 93 % 1024,0 hPa 0,0 l/m 0 min 0 min 0 W/m 9,7 km/h (2 Bft) 97,92 %
03.03.2023 03:14 0,9 C 0,6 C -2,8 C 93 % 1023,9 hPa 0,0 l/m 0 min 0 min 0 W/m 9,7 km/h (2 Bft) 95,65 %
03.03.2023 03:16 0,9 C 0,6 C -2,8 C 93 % 1023,9 hPa 0,0 l/m 0 min 0 min 0 W/m 12,9 km/h (3 Bft) 97,87 %
03.03.2023 03:18 0,9 C 0,6 C -2,8 C 93 % 1023,9 hPa 0,0 l/m 0 min 0 min 0 W/m 9,7 km/h (2 Bft) 93,62 %
03.03.2023 03:20 0,9 C 0,6 C -2,8 C 93 % 1023,9 hPa 0,0 l/m 0 min 0 min 0 W/m 9,7 km/h (2 Bft) 97,87 %
03.03.2023 03:22 0,9 C 0,6 C -2,8 C 93 % 1023,9 hPa 0,0 l/m 0 min 0 min 0 W/m 16,1 km/h (3 Bft) 97,87 %
03.03.2023 03:24 0,9 C 0,6 C -2,8 C 93 % 1023,9 hPa 0,0 l/m 0 min 0 min 0 W/m 12,9 km/h (3 Bft) 93,62 %
03.03.2023 03:26 0,9 C 0,6 C -2,8 C 93 % 1023,8 hPa 0,0 l/m 0 min 0 min 0 W/m 6,4 km/h (2 Bft) 95,74 %
03.03.2023 03:28 0,9 C 0,6 C -2,8 C 93 % 1023,9 hPa 0,0 l/m 0 min 0 min 0 W/m 9,7 km/h (2 Bft) 95,65 %
03.03.2023 03:30 0,9 C 0,6 C -2,8 C 93 % 1023,9 hPa 0,0 l/m 0 min 0 min 0 W/m 16,1 km/h (3 Bft) 95,74 %
03.03.2023 03:32 0,9 C 0,6 C -2,8 C 93 % 1023,8 hPa 0,0 l/m 0 min 0 min 0 W/m 9,7 km/h (2 Bft) 95,74 %
03.03.2023 03:34 0,9 C 0,6 C -2,8 C 93 % 1023,9 hPa 0,0 l/m 0 min 0 min 0 W/m 12,9 km/h (3 Bft) 97,87 %
03.03.2023 03:36 0,9 C 0,6 C -2,8 C 93 % 1024,0 hPa 0,0 l/m 0 min 0 min 0 W/m 16,1 km/h (3 Bft) 97,87 %
03.03.2023 03:38 0,8 C 0,6 C -2,8 C 93 % 1024,0 hPa 0,0 l/m 0 min 0 min 0 W/m 9,7 km/h (2 Bft) 97,92 %
03.03.2023 03:40 0,8 C 0,6 C -2,8 C 93 % 1024,0 hPa 0,0 l/m 0 min 0 min 0 W/m 16,1 km/h (3 Bft) 97,83 %
03.03.2023 03:42 0,8 C 0,6 C -2,8 C 93 % 1024,0 hPa 0,0 l/m 0 min 0 min 0 W/m 12,9 km/h (3 Bft) 95,74 %
03.03.2023 03:44 0,8 C 0,6 C -3,3 C 93 % 1024,0 hPa 0,0 l/m 0 min 0 min 0 W/m 12,9 km/h (3 Bft) 97,87 %
03.03.2023 03:46 0,8 C 0,6 C -2,8 C 93 % 1023,9 hPa 0,0 l/m 0 min 0 min 0 W/m 16,1 km/h (3 Bft) 97,87 %
03.03.2023 03:48 0,8 C 0,6 C -2,8 C 93 % 1023,9 hPa 0,0 l/m 0 min 0 min 0 W/m 16,1 km/h (3 Bft) 95,83 %
03.03.2023 03:50 0,8 C 0,6 C -2,8 C 93 % 1024,0 hPa 0,0 l/m 0 min 0 min 0 W/m 16,1 km/h (3 Bft) 95,74 %
03.03.2023 03:52 0,8 C 0,6 C -2,8 C 93 % 1024,0 hPa 0,0 l/m 0 min 0 min 0 W/m 12,9 km/h (3 Bft) 97,14 %
03.03.2023 03:54 0,8 C 0,6 C -2,8 C 93 % 1024,0 hPa 0,0 l/m 0 min 0 min 0 W/m 6,4 km/h (2 Bft) 95,74 %
03.03.2023 03:56 0,8 C 0,6 C -2,8 C 93 % 1024,0 hPa 0,0 l/m 0 min 0 min 0 W/m 12,9 km/h (3 Bft) 100,00 %
03.03.2023 03:58 0,8 C 0,6 C -2,8 C 93 % 1024,0 hPa 0,0 l/m 0 min 0 min 0 W/m 16,1 km/h (3 Bft) 100,00 %
03.03.2023 04:00 0,8 C 0,6 C -2,8 C 93 % 1024,1 hPa 0,0 l/m 0 min 0 min 0 W/m 12,9 km/h (3 Bft) 100,00 %
03.03.2023 04:02 0,8 C 0,6 C -2,8 C 93 % 1024,1 hPa 0,0 l/m 0 min 0 min 0 W/m 12,9 km/h (3 Bft) 95,65 %
03.03.2023 04:04 0,8 C 0,6 C -3,3 C 93 % 1024,1 hPa 0,0 l/m 0 min 0 min 0 W/m 12,9 km/h (3 Bft) 100,00 %
03.03.2023 04:06 0,8 C 0,6 C -3,3 C 93 % 1024,1 hPa 0,0 l/m 0 min 0 min 0 W/m 12,9 km/h (3 Bft) 100,00 %
03.03.2023 04:08 0,8 C 0,6 C -3,3 C 93 % 1024,1 hPa 0,0 l/m 0 min 0 min 0 W/m 6,4 km/h (2 Bft) 100,00 %
03.03.2023 04:10 0,8 C 0,6 C -3,3 C 93 % 1024,2 hPa 0,0 l/m 0 min 0 min 0 W/m 9,7 km/h (2 Bft) 100,00 %
03.03.2023 04:12 0,8 C 0,6 C -3,3 C 93 % 1024,1 hPa 0,0 l/m 0 min 0 min 0 W/m 9,7 km/h (2 Bft) 97,87 %
03.03.2023 04:14 0,8 C 0,6 C -3,3 C 93 % 1024,1 hPa 0,0 l/m 0 min 0 min 0 W/m 22,5 km/h (4 Bft) 100,00 %
03.03.2023 04:16 0,8 C 0,6 C -3,3 C 93 % 1024,1 hPa 0,0 l/m 0 min 0 min 0 W/m 12,9 km/h (3 Bft) 100,00 %
03.03.2023 04:18 0,8 C 0,6 C -3,3 C 93 % 1024,1 hPa 0,0 l/m 0 min 0 min 0 W/m 9,7 km/h (2 Bft) 100,00 %
03.03.2023 04:20 0,8 C 0,6 C -3,3 C 93 % 1024,2 hPa 0,0 l/m 0 min 0 min 0 W/m 19,3 km/h (3 Bft) 100,00 %
03.03.2023 04:22 0,8 C 0,0 C -3,3 C 93 % 1024,2 hPa 0,0 l/m 0 min 0 min 0 W/m 12,9 km/h (3 Bft) 95,74 %
03.03.2023 04:24 0,8 C 0,0 C -3,3 C 93 % 1024,2 hPa 0,0 l/m 0 min 0 min 0 W/m 16,1 km/h (3 Bft) 100,00 %
03.03.2023 04:26 0,8 C 0,0 C -3,3 C 93 % 1024,2 hPa 0,0 l/m 0 min 0 min 0 W/m 12,9 km/h (3 Bft) 100,00 %
03.03.2023 04:28 0,7 C 0,0 C -3,3 C 93 % 1024,2 hPa 0,0 l/m 0 min 0 min 0 W/m 16,1 km/h (3 Bft) 97,92 %
03.03.2023 04:30 0,7 C 0,6 C -3,3 C 93 % 1024,2 hPa 0,0 l/m 0 min 0 min 0 W/m 6,4 km/h (2 Bft) 100,00 %
03.03.2023 04:32 0,7 C 0,6 C -3,3 C 93 % 1024,2 hPa 0,0 l/m 0 min 0 min 0 W/m 6,4 km/h (2 Bft) 98,15 %
03.03.2023 04:34 0,8 C 0,6 C -2,8 C 93 % 1024,2 hPa 0,0 l/m 0 min 0 min 0 W/m 12,9 km/h (3 Bft) 100,00 %
03.03.2023 04:36 0,8 C 0,6 C -2,8 C 93 % 1024,2 hPa 0,0 l/m 0 min 0 min 0 W/m 9,7 km/h (2 Bft) 100,00 %
03.03.2023 04:38 0,7 C 0,6 C -2,8 C 93 % 1024,2 hPa 0,0 l/m 0 min 0 min 0 W/m 12,9 km/h (3 Bft) 100,00 %
03.03.2023 04:40 0,8 C 0,6 C -3,3 C 93 % 1024,3 hPa 0,0 l/m 0 min 0 min 0 W/m 6,4 km/h (2 Bft) 100,00 %
03.03.2023 04:42 0,8 C 0,6 C -3,3 C 93 % 1024,3 hPa 0,0 l/m 0 min 0 min 0 W/m 12,9 km/h (3 Bft) 97,87 %
03.03.2023 04:44 0,8 C 0,6 C -3,3 C 93 % 1024,3 hPa 0,0 l/m 0 min 0 min 0 W/m 12,9 km/h (3 Bft) 95,74 %
03.03.2023 04:46 0,8 C 0,0 C -3,3 C 93 % 1024,3 hPa 0,0 l/m 0 min 0 min 0 W/m 16,1 km/h (3 Bft) 97,87 %
03.03.2023 04:48 0,8 C 0,0 C -3,3 C 93 % 1024,3 hPa 0,0 l/m 0 min 0 min 0 W/m 9,7 km/h (2 Bft) 100,00 %
03.03.2023 04:50 0,7 C 0,6 C -3,3 C 93 % 1024,3 hPa 0,0 l/m 0 min 0 min 0 W/m 9,7 km/h (2 Bft) 100,00 %
03.03.2023 04:52 0,7 C 0,0 C -3,3 C 93 % 1024,3 hPa 0,0 l/m 0 min 0 min 0 W/m 16,1 km/h (3 Bft) 97,83 %
03.03.2023 04:54 0,7 C 0,0 C -3,3 C 93 % 1024,3 hPa 0,0 l/m 0 min 0 min 0 W/m 6,4 km/h (2 Bft) 97,87 %
03.03.2023 04:56 0,7 C 0,0 C -3,3 C 93 % 1024,3 hPa 0,0 l/m 0 min 0 min 0 W/m 9,7 km/h (2 Bft) 95,74 %
03.03.2023 04:58 0,7 C 0,0 C -3,3 C 93 % 1024,3 hPa 0,0 l/m 0 min 0 min 0 W/m 12,9 km/h (3 Bft) 95,74 %
03.03.2023 05:00 0,7 C 0,0 C -3,3 C 93 % 1024,2 hPa 0,0 l/m 0 min 0 min 0 W/m 12,9 km/h (3 Bft) 95,74 %
03.03.2023 05:02 0,6 C 0,0 C -3,3 C 93 % 1024,3 hPa 0,0 l/m 0 min 0 min 0 W/m 9,7 km/h (2 Bft) 97,87 %
03.03.2023 05:04 0,7 C 0,0 C -3,3 C 93 % 1024,2 hPa 0,0 l/m 0 min 0 min 0 W/m 9,7 km/h (2 Bft) 95,65 %
03.03.2023 05:06 0,6 C 0,0 C -3,3 C 93 % 1024,2 hPa 0,0 l/m 0 min 0 min 0 W/m 6,4 km/h (2 Bft) 97,87 %
03.03.2023 05:08 0,6 C 0,0 C -3,3 C 93 % 1024,2 hPa 0,0 l/m 0 min 0 min 0 W/m 6,4 km/h (2 Bft) 97,87 %
03.03.2023 05:10 0,6 C 0,0 C -3,3 C 93 % 1024,2 hPa 0,0 l/m 0 min 0 min 0 W/m 9,7 km/h (2 Bft) 93,62 %
03.03.2023 05:12 0,6 C 0,0 C -3,3 C 93 % 1024,2 hPa 0,0 l/m 0 min 0 min 0 W/m 6,4 km/h (2 Bft) 91,49 %
03.03.2023 05:14 0,6 C 0,0 C -3,3 C 93 % 1024,2 hPa 0,0 l/m 0 min 0 min 0 W/m 9,7 km/h (2 Bft) 93,62 %
03.03.2023 05:16 0,6 C 0,0 C -3,3 C 93 % 1024,2 hPa 0,0 l/m 0 min 0 min 0 W/m 6,4 km/h (2 Bft) 91,49 %
03.03.2023 05:18 0,6 C 0,0 C -3,3 C 93 % 1024,2 hPa 0,0 l/m 0 min 0 min 0 W/m 6,4 km/h (2 Bft) 95,65 %
03.03.2023 05:20 0,6 C 0,0 C -3,3 C 93 % 1024,2 hPa 0,0 l/m 0 min 0 min 0 W/m 6,4 km/h (2 Bft) 93,62 %
03.03.2023 05:22 0,6 C 0,0 C -3,3 C 93 % 1024,3 hPa 0,0 l/m 0 min 0 min 0 W/m 12,9 km/h (3 Bft) 93,62 %
03.03.2023 05:24 0,6 C 0,0 C -3,3 C 93 % 1024,3 hPa 0,0 l/m 0 min 0 min 0 W/m 12,9 km/h (3 Bft) 93,62 %
03.03.2023 05:26 0,6 C 0,0 C -3,3 C 93 % 1024,3 hPa 0,0 l/m 0 min 0 min 0 W/m 12,9 km/h (3 Bft) 92,59 %
03.03.2023 05:28 0,6 C 0,0 C -3,3 C 93 % 1024,4 hPa 0,0 l/m 0 min 0 min 0 W/m 6,4 km/h (2 Bft) 97,37 %
03.03.2023 05:30 0,6 C 0,0 C -3,3 C 93 % 1024,4 hPa 0,0 l/m 0 min 0 min 0 W/m 12,9 km/h (3 Bft) 91,30 %
03.03.2023 05:32 0,6 C 0,0 C -3,3 C 93 % 1024,4 hPa 0,0 l/m 0 min 0 min 0 W/m 6,4 km/h (2 Bft) 87,23 %
03.03.2023 05:34 0,6 C 0,0 C -3,3 C 93 % 1024,4 hPa 0,0 l/m 0 min 0 min 0 W/m 6,4 km/h (2 Bft) 93,62 %
03.03.2023 05:36 0,6 C 0,0 C -3,3 C 93 % 1024,4 hPa 0,0 l/m 0 min 0 min 0 W/m 12,9 km/h (3 Bft) 91,49 %
03.03.2023 05:38 0,6 C 0,0 C -3,3 C 93 % 1024,4 hPa 0,0 l/m 0 min 0 min 0 W/m 16,1 km/h (3 Bft) 93,62 %
03.03.2023 05:40 0,6 C 0,0 C -3,3 C 93 % 1024,4 hPa 0,0 l/m 0 min 0 min 0 W/m 12,9 km/h (3 Bft) 89,36 %
03.03.2023 05:42 0,6 C 0,0 C -3,3 C 93 % 1024,4 hPa 0,0 l/m 0 min 0 min 0 W/m 19,3 km/h (3 Bft) 95,74 %
03.03.2023 05:44 0,6 C 0,0 C -3,3 C 93 % 1024,4 hPa 0,0 l/m 0 min 0 min 0 W/m 9,7 km/h (2 Bft) 95,65 %
03.03.2023 05:46 0,6 C 0,0 C -3,3 C 93 % 1024,4 hPa 0,0 l/m 0 min 0 min 0 W/m 6,4 km/h (2 Bft) 95,74 %
03.03.2023 05:48 0,6 C 0,0 C -3,3 C 93 % 1024,4 hPa 0,0 l/m 0 min 0 min 0 W/m 12,9 km/h (3 Bft) 97,87 %
03.03.2023 05:50 0,6 C 0,0 C -3,3 C 93 % 1024,4 hPa 0,0 l/m 0 min 0 min 0 W/m 16,1 km/h (3 Bft) 100,00 %
03.03.2023 05:52 0,6 C 0,0 C -3,3 C 93 % 1024,4 hPa 0,0 l/m 0 min 0 min 0 W/m 16,1 km/h (3 Bft) 97,87 %
03.03.2023 05:54 0,6 C 0,0 C -3,3 C 93 % 1024,5 hPa 0,0 l/m 0 min 0 min 0 W/m 9,7 km/h (2 Bft) 100,00 %
03.03.2023 05:56 0,6 C 0,0 C -3,3 C 93 % 1024,4 hPa 0,0 l/m 0 min 0 min 0 W/m 9,7 km/h (2 Bft) 100,00 %
03.03.2023 05:58 0,6 C 0,0 C -3,3 C 93 % 1024,4 hPa 0,0 l/m 0 min 0 min 0 W/m 12,9 km/h (3 Bft) 100,00 %
03.03.2023 06:00 0,6 C 0,0 C -3,3 C 93 % 1024,5 hPa 0,0 l/m 0 min 0 min 0 W/m 19,3 km/h (3 Bft) 100,00 %
03.03.2023 06:02 0,6 C 0,0 C -3,3 C 93 % 1024,4 hPa 0,0 l/m 0 min 0 min 0 W/m 6,4 km/h (2 Bft) 97,92 %
03.03.2023 06:04 0,6 C 0,0 C -3,3 C 93 % 1024,5 hPa 0,0 l/m 0 min 0 min 0 W/m 9,7 km/h (2 Bft) 100,00 %
03.03.2023 06:07 0,6 C 0,0 C -3,3 C 93 % 1024,4 hPa 0,0 l/m 0 min 0 min 0 W/m 9,7 km/h (2 Bft) 98,59 %
03.03.2023 06:08 0,6 C 0,0 C -3,3 C 93 % 1024,4 hPa 0,0 l/m 0 min 0 min 0 W/m 6,4 km/h (2 Bft) 100,00 %
03.03.2023 06:12 0,6 C 0,0 C -3,3 C 93 % 1024,5 hPa 0,0 l/m 0 min 0 min 0 W/m 16,1 km/h (3 Bft) 100,00 %
03.03.2023 06:14 0,6 C 0,0 C -3,3 C 93 % 1024,5 hPa 0,0 l/m 0 min 0 min 0 W/m 19,3 km/h (3 Bft) 100,00 %
03.03.2023 06:16 0,6 C 0,0 C -3,3 C 93 % 1024,5 hPa 0,0 l/m 0 min 0 min 0 W/m 16,1 km/h (3 Bft) 97,87 %
03.03.2023 06:18 0,6 C 0,0 C -3,3 C 93 % 1024,6 hPa 0,0 l/m 0 min 0 min 0 W/m 9,7 km/h (2 Bft) 97,87 %
03.03.2023 06:20 0,6 C 0,0 C -3,3 C 93 % 1024,6 hPa 0,0 l/m 0 min 0 min 0 W/m 9,7 km/h (2 Bft) 100,00 %
03.03.2023 06:22 0,6 C 0,0 C -3,3 C 93 % 1024,6 hPa 0,0 l/m 0 min 0 min 0 W/m 12,9 km/h (3 Bft) 100,00 %
03.03.2023 06:24 0,6 C 0,0 C -3,3 C 93 % 1024,6 hPa 0,0 l/m 0 min 0 min 0 W/m 19,3 km/h (3 Bft) 100,00 %
03.03.2023 06:26 0,6 C 0,0 C -3,3 C 93 % 1024,5 hPa 0,0 l/m 0 min 0 min 0 W/m 9,7 km/h (2 Bft) 97,87 %
03.03.2023 06:28 0,6 C 0,0 C -3,3 C 93 % 1024,6 hPa 0,0 l/m 0 min 0 min 0 W/m 16,1 km/h (3 Bft) 100,00 %
03.03.2023 06:30 0,6 C 0,0 C -3,3 C 93 % 1024,6 hPa 0,0 l/m 0 min 0 min 0 W/m 12,9 km/h (3 Bft) 100,00 %
03.03.2023 06:32 0,5 C 0,0 C -3,3 C 93 % 1024,6 hPa 0,0 l/m 0 min 0 min 0 W/m 9,7 km/h (2 Bft) 93,62 %
03.03.2023 06:34 0,6 C 0,0 C -3,3 C 93 % 1024,6 hPa 0,0 l/m 0 min 0 min 0 W/m 6,4 km/h (2 Bft) 100,00 %
03.03.2023 06:36 0,5 C 0,0 C -3,3 C 93 % 1024,6 hPa 0,0 l/m 0 min 0 min 0 W/m 12,9 km/h (3 Bft) 100,00 %
03.03.2023 06:38 0,5 C 0,0 C -3,3 C 93 % 1024,4 hPa 0,0 l/m 0 min 0 min 0 W/m 9,7 km/h (2 Bft) 100,00 %
03.03.2023 06:40 0,5 C 0,0 C -3,3 C 93 % 1024,6 hPa 0,0 l/m 0 min 0 min 0 W/m 12,9 km/h (3 Bft) 100,00 %
03.03.2023 06:42 0,5 C 0,0 C -3,3 C 93 % 1024,6 hPa 0,0 l/m 0 min 0 min 0 W/m 6,4 km/h (2 Bft) 100,00 %
03.03.2023 06:44 0,6 C 0,0 C -3,3 C 93 % 1024,6 hPa 0,0 l/m 0 min 0 min 0 W/m 6,4 km/h (2 Bft) 100,00 %
03.03.2023 06:46 0,6 C 0,0 C -3,3 C 93 % 1024,6 hPa 0,0 l/m 0 min 0 min 0 W/m 6,4 km/h (2 Bft) 100,00 %
03.03.2023 06:48 0,6 C 0,0 C -3,3 C 93 % 1024,7 hPa 0,0 l/m 0 min 0 min 0 W/m 12,9 km/h (3 Bft) 100,00 %
03.03.2023 06:50 0,6 C 0,0 C -3,3 C 93 % 1024,6 hPa 0,0 l/m 0 min 0 min 0 W/m 9,7 km/h (2 Bft) 100,00 %
03.03.2023 06:52 0,5 C 0,0 C -3,3 C 93 % 1024,6 hPa 0,0 l/m 0 min 0 min 0 W/m 9,7 km/h (2 Bft) 100,00 %
03.03.2023 06:54 0,5 C 0,0 C -3,3 C 93 % 1024,6 hPa 0,0 l/m 0 min 0 min 0 W/m 12,9 km/h (3 Bft) 97,87 %
03.03.2023 06:56 0,5 C 0,0 C -3,3 C 93 % 1024,6 hPa 0,0 l/m 0 min 0 min 0 W/m 6,4 km/h (2 Bft) 100,00 %
03.03.2023 06:58 0,5 C 0,0 C -3,3 C 93 % 1024,6 hPa 0,0 l/m 0 min 0 min 0 W/m 16,1 km/h (3 Bft) 100,00 %
03.03.2023 07:00 0,5 C 0,0 C -3,3 C 93 % 1024,6 hPa 0,0 l/m 0 min 0 min 0 W/m 12,9 km/h (3 Bft) 97,87 %
03.03.2023 07:02 0,5 C 0,0 C -3,3 C 93 % 1024,6 hPa 0,0 l/m 0 min 0 min 0 W/m 6,4 km/h (2 Bft) 97,87 %
03.03.2023 07:04 0,5 C 0,0 C -3,3 C 93 % 1024,6 hPa 0,0 l/m 0 min 0 min 0 W/m 16,1 km/h (3 Bft) 97,83 %
03.03.2023 07:06 0,5 C 0,0 C -3,3 C 93 % 1024,6 hPa 0,0 l/m 0 min 0 min 0 W/m 12,9 km/h (3 Bft) 97,87 %
03.03.2023 07:08 0,4 C 0,0 C -3,3 C 93 % 1024,7 hPa 0,0 l/m 0 min 0 min 0 W/m 6,4 km/h (2 Bft) 97,87 %
03.03.2023 07:10 0,4 C 0,0 C -3,3 C 93 % 1024,7 hPa 0,0 l/m 0 min 0 min 0 W/m 6,4 km/h (2 Bft) 97,87 %
03.03.2023 07:12 0,4 C 0,0 C -3,3 C 93 % 1024,7 hPa 0,0 l/m 0 min 0 min 0 W/m 6,4 km/h (2 Bft) 95,74 %
03.03.2023 07:14 0,4 C 0,0 C -3,3 C 93 % 1024,7 hPa 0,0 l/m 0 min 0 min 0 W/m 9,7 km/h (2 Bft) 95,74 %
03.03.2023 07:16 0,4 C 0,0 C -3,3 C 93 % 1024,8 hPa 0,0 l/m 0 min 0 min 0 W/m 12,9 km/h (3 Bft) 95,74 %
03.03.2023 07:18 0,4 C 0,0 C -3,3 C 93 % 1024,8 hPa 0,0 l/m 0 min 0 min 0 W/m 6,4 km/h (2 Bft) 97,83 %
03.03.2023 07:20 0,4 C 0,0 C -3,3 C 93 % 1024,9 hPa 0,0 l/m 0 min 0 min 0 W/m 6,4 km/h (2 Bft) 97,87 %
03.03.2023 07:22 0,4 C 0,0 C -3,3 C 93 % 1024,9 hPa 0,0 l/m 0 min 0 min 0 W/m 6,4 km/h (2 Bft) 95,74 %
03.03.2023 07:24 0,4 C 0,0 C -3,3 C 93 % 1024,9 hPa 0,0 l/m 0 min 0 min 0 W/m 6,4 km/h (2 Bft) 95,74 %
03.03.2023 07:26 0,4 C 0,0 C -3,3 C 93 % 1025,0 hPa 0,0 l/m 0 min 0 min 0 W/m 6,4 km/h (2 Bft) 95,74 %
03.03.2023 07:28 0,4 C 0,0 C -3,3 C 93 % 1024,9 hPa 0,0 l/m 0 min 0 min 0 W/m 9,7 km/h (2 Bft) 95,74 %
03.03.2023 07:30 0,4 C 0,0 C -3,3 C 93 % 1025,0 hPa 0,0 l/m 0 min 0 min 0 W/m 6,4 km/h (2 Bft) 97,83 %
03.03.2023 07:32 0,4 C 0,0 C -3,3 C 93 % 1025,0 hPa 0,0 l/m 0 min 0 min 0 W/m 16,1 km/h (3 Bft) 91,49 %
03.03.2023 07:34 0,4 C 0,0 C -3,3 C 93 % 1025,0 hPa 0,0 l/m 0 min 0 min 2 W/m 9,7 km/h (2 Bft) 97,87 %
03.03.2023 07:36 0,4 C 0,0 C -3,3 C 93 % 1025,0 hPa 0,0 l/m 0 min 0 min 4 W/m 9,7 km/h (2 Bft) 97,87 %
03.03.2023 07:38 0,4 C 0,0 C -3,3 C 93 % 1025,0 hPa 0,0 l/m 0 min 0 min 5 W/m 12,9 km/h (3 Bft) 93,62 %
03.03.2023 07:40 0,4 C 0,0 C -3,3 C 93 % 1025,0 hPa 0,0 l/m 0 min 0 min 5 W/m 9,7 km/h (2 Bft) 97,87 %
03.03.2023 07:42 0,4 C 0,0 C -3,3 C 93 % 1025,0 hPa 0,0 l/m 0 min 0 min 5 W/m 9,7 km/h (2 Bft) 95,65 %
03.03.2023 07:44 0,4 C 0,0 C -3,3 C 93 % 1025,1 hPa 0,0 l/m 0 min 0 min 5 W/m 9,7 km/h (2 Bft) 93,62 %
03.03.2023 07:46 0,4 C 0,0 C -3,3 C 93 % 1025,2 hPa 0,0 l/m 0 min 0 min 7 W/m 9,7 km/h (2 Bft) 97,87 %
03.03.2023 07:48 0,5 C 0,0 C -3,3 C 93 % 1025,2 hPa 0,0 l/m 0 min 0 min 8 W/m 9,7 km/h (2 Bft) 97,87 %
03.03.2023 07:50 0,5 C 0,0 C -3,3 C 93 % 1025,3 hPa 0,0 l/m 0 min 0 min 7 W/m 6,4 km/h (2 Bft) 56,52 %
03.03.2023 07:52 0,5 C 0,0 C -3,3 C 93 % 1025,3 hPa 0,0 l/m 0 min 0 min 8 W/m 16,1 km/h (3 Bft) 97,87 %
03.03.2023 07:54 0,5 C 0,0 C -3,3 C 93 % 1025,3 hPa 0,0 l/m 0 min 0 min 9 W/m 12,9 km/h (3 Bft) 95,74 %
03.03.2023 07:56 0,5 C 0,0 C -3,3 C 93 % 1025,3 hPa 0,0 l/m 0 min 0 min 9 W/m 12,9 km/h (3 Bft) 97,83 %
03.03.2023 07:58 0,5 C 0,0 C -3,3 C 93 % 1025,3 hPa 0,0 l/m 0 min 0 min 11 W/m 9,7 km/h (2 Bft) 97,87 %
03.03.2023 08:00 0,5 C 0,0 C -3,3 C 93 % 1025,4 hPa 0,0 l/m 0 min 0 min 11 W/m 12,9 km/h (3 Bft) 100,00 %
03.03.2023 08:02 0,4 C 0,0 C -3,3 C 93 % 1025,3 hPa 0,0 l/m 0 min 0 min 12 W/m 16,1 km/h (3 Bft) 100,00 %
03.03.2023 08:04 0,5 C 0,0 C -3,3 C 93 % 1025,3 hPa 0,0 l/m 0 min 0 min 14 W/m 6,4 km/h (2 Bft) 100,00 %
03.03.2023 08:06 0,5 C 0,0 C -3,3 C 93 % 1025,3 hPa 0,0 l/m 0 min 0 min 14 W/m 6,4 km/h (2 Bft) 97,87 %
03.03.2023 08:08 0,5 C 0,0 C -3,3 C 93 % 1025,3 hPa 0,0 l/m 0 min 0 min 16 W/m 6,4 km/h (2 Bft) 97,87 %
03.03.2023 08:10 0,5 C 0,0 C -3,3 C 93 % 1025,3 hPa 0,0 l/m 0 min 0 min 18 W/m 9,7 km/h (2 Bft) 97,83 %
03.03.2023 08:12 0,5 C 0,0 C -3,3 C 93 % 1025,3 hPa 0,0 l/m 0 min 0 min 20 W/m 9,7 km/h (2 Bft) 97,87 %
03.03.2023 08:14 0,5 C 0,0 C -3,3 C 93 % 1025,3 hPa 0,0 l/m 0 min 0 min 20 W/m 9,7 km/h (2 Bft) 93,62 %
03.03.2023 08:16 0,5 C 0,6 C -3,3 C 93 % 1025,3 hPa 0,0 l/m 0 min 0 min 21 W/m 6,4 km/h (2 Bft) 97,87 %
03.03.2023 08:18 0,6 C 0,6 C -3,3 C 93 % 1025,3 hPa 0,0 l/m 0 min 0 min 23 W/m 12,9 km/h (3 Bft) 95,74 %
03.03.2023 08:20 0,6 C 0,6 C -3,3 C 93 % 1025,3 hPa 0,0 l/m 0 min 0 min 23 W/m 12,9 km/h (3 Bft) 97,87 %
03.03.2023 08:22 0,6 C 0,6 C -2,8 C 93 % 1025,4 hPa 0,0 l/m 0 min 0 min 25 W/m 9,7 km/h (2 Bft) 95,74 %
03.03.2023 08:24 0,6 C 0,6 C -2,8 C 93 % 1025,4 hPa 0,0 l/m 0 min 0 min 25 W/m 9,7 km/h (2 Bft) 95,65 %
03.03.2023 08:26 0,6 C 0,6 C -2,8 C 93 % 1025,4 hPa 0,0 l/m 0 min 0 min 25 W/m 19,3 km/h (3 Bft) 97,87 %
03.03.2023 08:28 0,6 C 0,6 C -2,8 C 93 % 1025,4 hPa 0,0 l/m 0 min 0 min 28 W/m 12,9 km/h (3 Bft) 97,87 %
03.03.2023 08:30 0,6 C 0,6 C -2,8 C 93 % 1025,4 hPa 0,0 l/m 0 min 0 min 32 W/m 6,4 km/h (2 Bft) 97,87 %
03.03.2023 08:32 0,6 C 0,6 C -2,8 C 93 % 1025,5 hPa 0,0 l/m 0 min 0 min 32 W/m 9,7 km/h (2 Bft) 91,49 %
03.03.2023 08:34 0,6 C 0,6 C -2,8 C 93 % 1025,5 hPa 0,0 l/m 0 min 0 min 33 W/m 12,9 km/h (3 Bft) 97,87 %
03.03.2023 08:36 0,6 C 0,6 C -2,8 C 93 % 1025,5 hPa 0,0 l/m 0 min 0 min 35 W/m 9,7 km/h (2 Bft) 52,27 %
03.03.2023 08:38 0,6 C 0,6 C -2,8 C 93 % 1025,5 hPa 0,0 l/m 0 min 0 min 39 W/m 6,4 km/h (2 Bft) 93,62 %
03.03.2023 08:40 0,6 C 0,6 C -2,8 C 93 % 1025,5 hPa 0,0 l/m 0 min 0 min 38 W/m 9,7 km/h (2 Bft) 97,87 %
03.03.2023 08:42 0,7 C 0,6 C -2,8 C 93 % 1025,5 hPa 0,0 l/m 0 min 0 min 39 W/m 6,4 km/h (2 Bft) 95,74 %
03.03.2023 08:44 0,7 C 0,6 C -2,8 C 93 % 1025,5 hPa 0,0 l/m 0 min 0 min 39 W/m 9,7 km/h (2 Bft) 97,87 %
03.03.2023 08:46 0,7 C 0,6 C -2,8 C 93 % 1025,5 hPa 0,0 l/m 0 min 0 min 39 W/m 3,2 km/h (1 Bft) 95,74 %
03.03.2023 08:48 0,8 C 1,1 C -2,8 C 93 % 1025,5 hPa 0,0 l/m 0 min 0 min 41 W/m 3,2 km/h (1 Bft) 95,74 %
03.03.2023 08:50 0,8 C 1,1 C -2,8 C 93 % 1025,6 hPa 0,0 l/m 0 min 0 min 40 W/m 9,7 km/h (2 Bft) 93,02 %
03.03.2023 08:52 0,8 C 1,1 C -2,8 C 93 % 1025,7 hPa 0,0 l/m 0 min 0 min 39 W/m 6,4 km/h (2 Bft) 93,62 %
03.03.2023 08:54 0,8 C 1,1 C -2,8 C 93 % 1025,6 hPa 0,0 l/m 0 min 0 min 40 W/m 9,7 km/h (2 Bft) 95,74 %
03.03.2023 08:56 0,9 C 1,1 C -2,8 C 93 % 1025,6 hPa 0,0 l/m 0 min 0 min 39 W/m 12,9 km/h (3 Bft) 93,62 %
03.03.2023 08:58 0,9 C 1,1 C -2,8 C 93 % 1025,7 hPa 0,0 l/m 0 min 0 min 39 W/m 6,4 km/h (2 Bft) 95,74 %
03.03.2023 09:00 0,9 C 1,1 C -2,8 C 93 % 1025,8 hPa 0,0 l/m 0 min 0 min 43 W/m 9,7 km/h (2 Bft) 93,62 %
03.03.2023 09:02 0,9 C 1,1 C -2,8 C 93 % 1025,7 hPa 0,0 l/m 0 min 0 min 42 W/m 9,7 km/h (2 Bft) 97,83 %
03.03.2023 09:04 0,9 C 1,1 C -2,8 C 93 % 1025,7 hPa 0,0 l/m 0 min 0 min 44 W/m 9,7 km/h (2 Bft) 95,74 %
03.03.2023 09:06 0,9 C 1,1 C -2,8 C 93 % 1025,8 hPa 0,0 l/m 0 min 0 min 44 W/m 6,4 km/h (2 Bft) 94,92 %
03.03.2023 09:08 1,0 C 1,1 C -2,2 C 93 % 1025,8 hPa 0,0 l/m 0 min 0 min 46 W/m 9,7 km/h (2 Bft) 97,14 %
03.03.2023 09:10 1,0 C 1,1 C -2,2 C 93 % 1025,8 hPa 0,0 l/m 0 min 0 min 44 W/m 9,7 km/h (2 Bft) 95,74 %
03.03.2023 09:12 1,1 C 1,1 C -2,2 C 93 % 1025,8 hPa 0,0 l/m 0 min 0 min 46 W/m 9,7 km/h (2 Bft) 95,74 %
03.03.2023 09:14 1,1 C 1,1 C -2,2 C 93 % 1025,8 hPa 0,0 l/m 0 min 0 min 46 W/m 12,9 km/h (3 Bft) 97,83 %
03.03.2023 09:16 1,1 C 1,1 C -2,2 C 92 % 1025,9 hPa 0,0 l/m 0 min 0 min 48 W/m 9,7 km/h (2 Bft) 95,74 %
03.03.2023 09:18 1,1 C 1,1 C -2,2 C 92 % 1025,9 hPa 0,0 l/m 0 min 0 min 48 W/m 6,4 km/h (2 Bft) 95,74 %
03.03.2023 09:20 1,1 C 1,1 C -2,2 C 92 % 1025,9 hPa 0,0 l/m 0 min 0 min 49 W/m 9,7 km/h (2 Bft) 97,87 %
03.03.2023 09:22 1,1 C 1,1 C -2,2 C 92 % 1025,9 hPa 0,0 l/m 0 min 0 min 49 W/m 3,2 km/h (1 Bft) 93,62 %
03.03.2023 09:24 1,1 C 1,1 C -2,2 C 92 % 1026,0 hPa 0,0 l/m 0 min 0 min 47 W/m 9,7 km/h (2 Bft) 97,87 %
03.03.2023 09:26 1,2 C 1,1 C -2,2 C 92 % 1026,0 hPa 0,0 l/m 0 min 0 min 48 W/m 6,4 km/h (2 Bft) 100,00 %
03.03.2023 09:28 1,2 C 1,1 C -2,2 C 92 % 1026,0 hPa 0,0 l/m 0 min 0 min 48 W/m 12,9 km/h (3 Bft) 100,00 %
03.03.2023 09:30 1,2 C 1,1 C -2,2 C 92 % 1026,0 hPa 0,0 l/m 0 min 0 min 49 W/m 9,7 km/h (2 Bft) 87,23 %
03.03.2023 09:32 1,2 C 1,1 C -2,2 C 92 % 1026,1 hPa 0,0 l/m 0 min 0 min 48 W/m 6,4 km/h (2 Bft) 100,00 %
03.03.2023 09:34 1,2 C 1,1 C -2,2 C 92 % 1026,1 hPa 0,0 l/m 0 min 0 min 52 W/m 16,1 km/h (3 Bft) 100,00 %
03.03.2023 09:36 1,2 C 1,1 C -2,2 C 92 % 1026,1 hPa 0,0 l/m 0 min 0 min 54 W/m 19,3 km/h (3 Bft) 100,00 %
03.03.2023 09:38 1,2 C 1,1 C -2,2 C 91 % 1026,0 hPa 0,0 l/m 0 min 0 min 56 W/m 9,7 km/h (2 Bft) 97,87 %
03.03.2023 09:40 1,2 C 1,1 C -2,2 C 91 % 1026,1 hPa 0,0 l/m 0 min 0 min 55 W/m 9,7 km/h (2 Bft) 95,74 %
03.03.2023 09:42 1,2 C 1,1 C -2,2 C 91 % 1026,1 hPa 0,0 l/m 0 min 0 min 57 W/m 19,3 km/h (3 Bft) 95,65 %
03.03.2023 09:44 1,3 C 1,1 C -2,2 C 91 % 1026,1 hPa 0,0 l/m 0 min 0 min 60 W/m 9,7 km/h (2 Bft) 97,87 %
03.03.2023 09:46 1,3 C 1,1 C -2,2 C 91 % 1026,1 hPa 0,0 l/m 0 min 0 min 59 W/m 6,4 km/h (2 Bft) 93,62 %
03.03.2023 09:48 1,3 C 1,1 C -2,2 C 91 % 1026,2 hPa 0,0 l/m 0 min 0 min 60 W/m 16,1 km/h (3 Bft) 97,87 %
03.03.2023 09:50 1,3 C 1,1 C -2,2 C 91 % 1026,1 hPa 0,0 l/m 0 min 0 min 62 W/m 12,9 km/h (3 Bft) 97,87 %
03.03.2023 09:52 1,3 C 1,1 C -2,2 C 91 % 1026,2 hPa 0,0 l/m 0 min 0 min 63 W/m 16,1 km/h (3 Bft) 95,74 %
03.03.2023 09:54 1,3 C 1,1 C -2,2 C 91 % 1026,2 hPa 0,0 l/m 0 min 0 min 63 W/m 6,4 km/h (2 Bft) 95,65 %
03.03.2023 09:56 1,3 C 1,1 C -2,2 C 91 % 1026,2 hPa 0,0 l/m 0 min 0 min 66 W/m 12,9 km/h (3 Bft) 97,87 %
03.03.2023 09:58 1,3 C 1,1 C -2,2 C 91 % 1026,2 hPa 0,0 l/m 0 min 0 min 67 W/m 9,7 km/h (2 Bft) 95,74 %
03.03.2023 10:00 1,3 C 1,7 C -2,2 C 91 % 1026,2 hPa 0,0 l/m 0 min 0 min 66 W/m 3,2 km/h (1 Bft) 95,74 %
03.03.2023 10:02 1,4 C 1,7 C -2,2 C 91 % 1026,3 hPa 0,0 l/m 0 min 0 min 65 W/m 12,9 km/h (3 Bft) 95,74 %
03.03.2023 10:04 1,4 C 1,7 C -2,2 C 91 % 1026,3 hPa 0,0 l/m 0 min 0 min 63 W/m 12,9 km/h (3 Bft) 93,62 %
03.03.2023 10:06 1,4 C 1,7 C -2,2 C 90 % 1026,3 hPa 0,0 l/m 0 min 0 min 62 W/m 9,7 km/h (2 Bft) 94,83 %
03.03.2023 10:08 1,4 C 1,7 C -2,2 C 91 % 1026,3 hPa 0,0 l/m 0 min 0 min 64 W/m 9,7 km/h (2 Bft) 97,22 %
03.03.2023 10:10 1,4 C 1,7 C -2,2 C 90 % 1026,3 hPa 0,0 l/m 0 min 0 min 66 W/m 6,4 km/h (2 Bft) 97,83 %
03.03.2023 10:12 1,5 C 1,7 C -2,2 C 90 % 1026,3 hPa 0,0 l/m 0 min 0 min 68 W/m 9,7 km/h (2 Bft) 91,49 %
03.03.2023 10:14 1,5 C 1,7 C -2,2 C 90 % 1026,3 hPa 0,0 l/m 0 min 0 min 72 W/m 9,7 km/h (2 Bft) 97,87 %
03.03.2023 10:16 1,5 C 1,7 C -2,2 C 90 % 1026,3 hPa 0,0 l/m 0 min 0 min 71 W/m 12,9 km/h (3 Bft) 95,74 %
03.03.2023 10:18 1,6 C 1,7 C -2,2 C 90 % 1026,4 hPa 0,0 l/m 0 min 0 min 69 W/m 22,5 km/h (4 Bft) 91,49 %
03.03.2023 10:20 1,6 C 1,7 C -2,2 C 90 % 1026,3 hPa 0,0 l/m 0 min 0 min 71 W/m 9,7 km/h (2 Bft) 93,62 %
03.03.2023 10:22 1,6 C 1,7 C -1,7 C 90 % 1026,3 hPa 0,0 l/m 0 min 0 min 81 W/m 6,4 km/h (2 Bft) 89,13 %
03.03.2023 10:24 1,6 C 1,7 C -1,7 C 90 % 1026,4 hPa 0,0 l/m 0 min 0 min 78 W/m 6,4 km/h (2 Bft) 85,11 %
03.03.2023 10:26 1,6 C 1,7 C -1,7 C 90 % 1026,4 hPa 0,0 l/m 0 min 0 min 76 W/m 12,9 km/h (3 Bft) 100,00 %
03.03.2023 10:28 1,6 C 1,7 C -1,7 C 90 % 1026,4 hPa 0,0 l/m 0 min 0 min 77 W/m 6,4 km/h (2 Bft) 93,62 %
03.03.2023 10:30 1,7 C 2,2 C -1,7 C 90 % 1026,4 hPa 0,0 l/m 0 min 0 min 81 W/m 6,4 km/h (2 Bft) 53,19 %
03.03.2023 10:32 1,7 C 2,2 C -1,7 C 90 % 1026,3 hPa 0,0 l/m 0 min 0 min 77 W/m 9,7 km/h (2 Bft) 53,19 %
03.03.2023 10:34 1,7 C 2,2 C -1,7 C 90 % 1026,4 hPa 0,0 l/m 0 min 0 min 76 W/m 9,7 km/h (2 Bft) 73,91 %
03.03.2023 10:36 1,7 C 2,2 C -1,7 C 90 % 1026,4 hPa 0,0 l/m 0 min 0 min 76 W/m 12,9 km/h (3 Bft) 70,21 %
03.03.2023 10:38 1,7 C 1,7 C -1,7 C 89 % 1026,5 hPa 0,0 l/m 0 min 0 min 77 W/m 9,7 km/h (2 Bft) 80,85 %
03.03.2023 10:40 1,8 C 2,2 C -1,7 C 90 % 1026,4 hPa 0,0 l/m 0 min 0 min 79 W/m 3,2 km/h (1 Bft) 59,57 %
03.03.2023 10:42 1,8 C 2,2 C -1,7 C 89 % 1026,5 hPa 0,0 l/m 0 min 0 min 79 W/m 9,7 km/h (2 Bft) 38,30 %
03.03.2023 10:44 1,8 C 1,7 C -1,7 C 89 % 1026,6 hPa 0,0 l/m 0 min 0 min 78 W/m 6,4 km/h (2 Bft) 93,62 %
03.03.2023 10:46 1,8 C 1,7 C -1,7 C 89 % 1026,6 hPa 0,0 l/m 0 min 0 min 79 W/m 6,4 km/h (2 Bft) 97,87 %
03.03.2023 10:48 1,8 C 1,7 C -1,7 C 89 % 1026,6 hPa 0,0 l/m 0 min 0 min 82 W/m 12,9 km/h (3 Bft) 60,87 %
03.03.2023 10:50 1,8 C 1,7 C -1,7 C 89 % 1026,6 hPa 0,0 l/m 0 min 0 min 86 W/m 9,7 km/h (2 Bft) 59,57 %
03.03.2023 10:52 1,8 C 2,2 C -1,7 C 89 % 1026,6 hPa 0,0 l/m 0 min 0 min 86 W/m 6,4 km/h (2 Bft) 42,55 %
03.03.2023 10:54 1,8 C 2,2 C -1,7 C 89 % 1026,7 hPa 0,0 l/m 0 min 0 min 86 W/m 6,4 km/h (2 Bft) 53,19 %
03.03.2023 10:56 1,9 C 2,2 C -1,7 C 89 % 1026,7 hPa 0,0 l/m 0 min 0 min 86 W/m 6,4 km/h (2 Bft) 48,94 %
03.03.2023 10:58 1,9 C 2,2 C -1,7 C 89 % 1026,7 hPa 0,0 l/m 0 min 0 min 106 W/m 6,4 km/h (2 Bft) 63,83 %
03.03.2023 11:00 1,9 C 2,2 C -1,7 C 89 % 1026,7 hPa 0,0 l/m 0 min 0 min 109 W/m 3,2 km/h (1 Bft) 36,17 %
03.03.2023 11:02 1,9 C 2,8 C -1,7 C 89 % 1026,6 hPa 0,0 l/m 0 min 0 min 109 W/m 6,4 km/h (2 Bft) 26,09 %
03.03.2023 11:04 1,9 C 2,8 C -1,7 C 89 % 1026,6 hPa 0,0 l/m 0 min 0 min 109 W/m 6,4 km/h (2 Bft) 21,28 %
03.03.2023 11:06 2,0 C 2,8 C -1,7 C 89 % 1026,7 hPa 0,0 l/m 0 min 0 min 109 W/m 6,4 km/h (2 Bft) 32,20 %
03.03.2023 11:08 2,0 C 2,8 C -1,7 C 89 % 1026,7 hPa 0,0 l/m 0 min 0 min 116 W/m 12,9 km/h (3 Bft) 51,43 %
03.03.2023 11:10 2,1 C 2,8 C -1,7 C 89 % 1026,7 hPa 0,0 l/m 0 min 0 min 116 W/m 9,7 km/h (2 Bft) 61,70 %
03.03.2023 11:12 2,1 C 2,8 C -1,1 C 88 % 1026,7 hPa 0,0 l/m 0 min 0 min 115 W/m 6,4 km/h (2 Bft) 51,06 %
03.03.2023 11:14 2,1 C 2,8 C -1,1 C 88 % 1026,7 hPa 0,0 l/m 0 min 0 min 116 W/m 9,7 km/h (2 Bft) 56,52 %
03.03.2023 11:16 2,1 C 2,8 C -1,1 C 88 % 1026,7 hPa 0,0 l/m 0 min 0 min 111 W/m 6,4 km/h (2 Bft) 59,57 %
03.03.2023 11:18 2,1 C 2,8 C -1,1 C 88 % 1026,7 hPa 0,0 l/m 0 min 0 min 111 W/m 6,4 km/h (2 Bft) 78,72 %
03.03.2023 11:20 2,2 C 2,8 C -1,1 C 88 % 1026,7 hPa 0,0 l/m 0 min 0 min 113 W/m 9,7 km/h (2 Bft) 80,85 %
03.03.2023 11:22 2,2 C 2,8 C -1,1 C 88 % 1026,7 hPa 0,0 l/m 0 min 0 min 124 W/m 12,9 km/h (3 Bft) 89,36 %
03.03.2023 11:24 2,2 C 2,8 C -1,1 C 88 % 1026,7 hPa 0,0 l/m 0 min 0 min 120 W/m 9,7 km/h (2 Bft) 91,49 %
03.03.2023 11:26 2,2 C 2,8 C -1,7 C 88 % 1026,7 hPa 0,0 l/m 0 min 0 min 119 W/m 9,7 km/h (2 Bft) 97,87 %
03.03.2023 11:28 2,2 C 2,8 C -1,1 C 88 % 1026,7 hPa 0,0 l/m 0 min 0 min 120 W/m 6,4 km/h (2 Bft) 97,83 %
03.03.2023 11:30 2,2 C 2,8 C -1,1 C 88 % 1026,7 hPa 0,0 l/m 0 min 0 min 120 W/m 12,9 km/h (3 Bft) 97,87 %
03.03.2023 11:32 2,3 C 2,8 C -1,1 C 88 % 1026,7 hPa 0,0 l/m 0 min 0 min 116 W/m 9,7 km/h (2 Bft) 91,49 %
03.03.2023 11:34 2,3 C 2,8 C -1,1 C 88 % 1026,8 hPa 0,0 l/m 0 min 0 min 111 W/m 9,7 km/h (2 Bft) 91,49 %
03.03.2023 11:36 2,3 C 2,8 C -1,1 C 88 % 1026,7 hPa 0,0 l/m 0 min 0 min 110 W/m 6,4 km/h (2 Bft) 93,62 %
03.03.2023 11:38 2,3 C 2,8 C -1,1 C 88 % 1026,7 hPa 0,0 l/m 0 min 0 min 116 W/m 9,7 km/h (2 Bft) 82,98 %
03.03.2023 11:40 2,3 C 2,8 C -1,1 C 88 % 1026,7 hPa 0,0 l/m 0 min 0 min 122 W/m 16,1 km/h (3 Bft) 93,62 %
03.03.2023 11:42 2,3 C 2,8 C -1,1 C 88 % 1026,7 hPa 0,0 l/m 0 min 0 min 123 W/m 6,4 km/h (2 Bft) 97,83 %
03.03.2023 11:44 2,3 C 2,8 C -1,1 C 88 % 1026,7 hPa 0,0 l/m 0 min 0 min 123 W/m 12,9 km/h (3 Bft) 95,74 %
03.03.2023 11:46 2,3 C 2,8 C -1,1 C 87 % 1026,7 hPa 0,0 l/m 0 min 0 min 122 W/m 16,1 km/h (3 Bft) 72,34 %
03.03.2023 11:48 2,4 C 2,8 C -1,1 C 87 % 1026,7 hPa 0,0 l/m 0 min 0 min 122 W/m 3,2 km/h (1 Bft) 68,09 %
03.03.2023 11:50 2,4 C 3,3 C -1,1 C 87 % 1026,7 hPa 0,0 l/m 0 min 0 min 133 W/m 3,2 km/h (1 Bft) 89,36 %
03.03.2023 11:52 2,4 C 3,3 C -1,1 C 87 % 1026,8 hPa 0,0 l/m 0 min 0 min 133 W/m 9,7 km/h (2 Bft) 82,98 %
03.03.2023 11:54 2,5 C 3,3 C -1,1 C 87 % 1026,7 hPa 0,0 l/m 0 min 0 min 128 W/m 9,7 km/h (2 Bft) 82,98 %
03.03.2023 11:56 2,5 C 3,3 C -1,1 C 87 % 1026,8 hPa 0,0 l/m 0 min 0 min 126 W/m 9,7 km/h (2 Bft) 89,13 %
03.03.2023 11:58 2,5 C 2,8 C -1,1 C 87 % 1026,8 hPa 0,0 l/m 0 min 0 min 134 W/m 12,9 km/h (3 Bft) 90,48 %
03.03.2023 12:00 2,6 C 2,8 C -1,1 C 87 % 1026,8 hPa 0,0 l/m 0 min 0 min 134 W/m 12,9 km/h (3 Bft) 95,65 %
03.03.2023 12:02 2,6 C 2,8 C -1,1 C 87 % 1026,8 hPa 0,0 l/m 0 min 0 min 131 W/m 9,7 km/h (2 Bft) 78,72 %
03.03.2023 12:04 2,6 C 2,8 C -1,1 C 87 % 1026,8 hPa 0,0 l/m 0 min 0 min 124 W/m 9,7 km/h (2 Bft) 95,74 %
03.03.2023 12:07 2,6 C 2,8 C -1,1 C 87 % 1026,7 hPa 0,0 l/m 0 min 0 min 115 W/m 9,7 km/h (2 Bft) 84,62 %
03.03.2023 12:08 2,6 C 2,8 C -1,1 C 87 % 1026,7 hPa 0,0 l/m 0 min 0 min 117 W/m 6,4 km/h (2 Bft) 95,65 %
03.03.2023 12:12 2,6 C 2,8 C -1,1 C 87 % 1026,8 hPa 0,0 l/m 0 min 0 min 130 W/m 9,7 km/h (2 Bft) 100,00 %
03.03.2023 12:14 2,6 C 3,3 C -1,1 C 87 % 1026,8 hPa 0,0 l/m 0 min 0 min 134 W/m 9,7 km/h (2 Bft) 100,00 %
03.03.2023 12:16 2,6 C 3,3 C -1,1 C 86 % 1026,8 hPa 0,0 l/m 0 min 0 min 125 W/m 9,7 km/h (2 Bft) 95,74 %
03.03.2023 12:18 2,6 C 3,3 C -1,1 C 86 % 1026,8 hPa 0,0 l/m 0 min 0 min 123 W/m 12,9 km/h (3 Bft) 95,74 %
03.03.2023 12:20 2,6 C 3,3 C -1,1 C 86 % 1026,8 hPa 0,0 l/m 0 min 0 min 127 W/m 9,7 km/h (2 Bft) 95,74 %
03.03.2023 12:22 2,6 C 3,3 C -1,1 C 86 % 1026,8 hPa 0,0 l/m 0 min 0 min 129 W/m 6,4 km/h (2 Bft) 95,74 %
03.03.2023 12:24 2,6 C 3,3 C -1,1 C 86 % 1026,8 hPa 0,0 l/m 0 min 0 min 131 W/m 9,7 km/h (2 Bft) 97,87 %
03.03.2023 12:26 2,7 C 3,3 C -1,1 C 86 % 1026,7 hPa 0,0 l/m 0 min 0 min 137 W/m 6,4 km/h (2 Bft) 97,83 %
03.03.2023 12:28 2,7 C 3,3 C -0,6 C 86 % 1026,7 hPa 0,0 l/m 0 min 0 min 138 W/m 12,9 km/h (3 Bft) 95,74 %
03.03.2023 12:30 2,7 C 3,3 C -0,6 C 86 % 1026,7 hPa 0,0 l/m 0 min 0 min 146 W/m 9,7 km/h (2 Bft) 95,74 %
03.03.2023 12:32 2,7 C 3,3 C -0,6 C 86 % 1026,7 hPa 0,0 l/m 0 min 0 min 157 W/m 9,7 km/h (2 Bft) 95,74 %
03.03.2023 12:34 2,7 C 3,3 C -0,6 C 86 % 1026,7 hPa 0,0 l/m 0 min 0 min 154 W/m 9,7 km/h (2 Bft) 97,87 %
03.03.2023 12:36 2,7 C 3,3 C -0,6 C 86 % 1026,7 hPa 0,0 l/m 0 min 0 min 148 W/m 6,4 km/h (2 Bft) 97,87 %
03.03.2023 12:38 2,7 C 2,8 C -0,6 C 86 % 1026,7 hPa 0,0 l/m 0 min 0 min 142 W/m 9,7 km/h (2 Bft) 97,87 %
03.03.2023 12:40 2,7 C 3,3 C -0,6 C 86 % 1026,6 hPa 0,0 l/m 0 min 0 min 136 W/m 6,4 km/h (2 Bft) 95,65 %
03.03.2023 12:42 2,7 C 3,3 C -0,6 C 86 % 1026,6 hPa 0,0 l/m 0 min 0 min 142 W/m 12,9 km/h (3 Bft) 95,74 %
03.03.2023 12:44 2,8 C 3,3 C -0,6 C 86 % 1026,6 hPa 0,0 l/m 0 min 0 min 150 W/m 9,7 km/h (2 Bft) 97,87 %
03.03.2023 12:46 2,8 C 3,3 C -0,6 C 86 % 1026,6 hPa 0,0 l/m 0 min 0 min 149 W/m 6,4 km/h (2 Bft) 95,74 %
03.03.2023 12:48 2,8 C 3,3 C -0,6 C 86 % 1026,5 hPa 0,0 l/m 0 min 0 min 141 W/m 6,4 km/h (2 Bft) 93,62 %
03.03.2023 12:50 2,8 C 3,3 C -0,6 C 86 % 1026,5 hPa 0,0 l/m 0 min 0 min 144 W/m 16,1 km/h (3 Bft) 95,74 %
03.03.2023 12:52 2,8 C 3,3 C -0,6 C 86 % 1026,5 hPa 0,0 l/m 0 min 0 min 146 W/m 9,7 km/h (2 Bft) 93,62 %
03.03.2023 12:54 2,8 C 3,3 C -0,6 C 86 % 1026,5 hPa 0,0 l/m 0 min 0 min 147 W/m 9,7 km/h (2 Bft) 93,48 %
03.03.2023 12:56 2,8 C 3,3 C -0,6 C 86 % 1026,5 hPa 0,0 l/m 0 min 0 min 144 W/m 6,4 km/h (2 Bft) 95,74 %
03.03.2023 12:58 2,9 C 3,3 C -0,6 C 86 % 1026,6 hPa 0,0 l/m 0 min 0 min 144 W/m 9,7 km/h (2 Bft) 93,62 %
03.03.2023 13:00 2,9 C 3,3 C -0,6 C 86 % 1026,5 hPa 0,0 l/m 0 min 0 min 147 W/m 6,4 km/h (2 Bft) 93,62 %
03.03.2023 13:02 2,9 C 3,3 C -0,6 C 86 % 1026,4 hPa 0,0 l/m 0 min 0 min 144 W/m 9,7 km/h (2 Bft) 97,87 %
03.03.2023 13:04 2,9 C 3,3 C -0,6 C 85 % 1026,5 hPa 0,0 l/m 0 min 0 min 145 W/m 9,7 km/h (2 Bft) 97,87 %
03.03.2023 13:06 3,0 C 3,9 C -0,6 C 86 % 1026,5 hPa 0,0 l/m 0 min 0 min 135 W/m 9,7 km/h (2 Bft) 96,55 %
03.03.2023 13:08 3,1 C 3,9 C -0,6 C 86 % 1026,4 hPa 0,0 l/m 0 min 0 min 132 W/m 9,7 km/h (2 Bft) 100,00 %
03.03.2023 13:10 3,1 C 3,9 C -0,6 C 86 % 1026,4 hPa 0,0 l/m 0 min 0 min 139 W/m 6,4 km/h (2 Bft) 95,74 %
03.03.2023 13:12 3,1 C 3,9 C -0,6 C 86 % 1026,4 hPa 0,0 l/m 0 min 0 min 142 W/m 6,4 km/h (2 Bft) 97,87 %
03.03.2023 13:14 3,1 C 3,9 C 0,0 C 86 % 1026,4 hPa 0,0 l/m 0 min 0 min 143 W/m 6,4 km/h (2 Bft) 97,87 %
03.03.2023 13:16 3,2 C 3,9 C 0,0 C 85 % 1026,4 hPa 0,0 l/m 0 min 0 min 138 W/m 9,7 km/h (2 Bft) 95,74 %
03.03.2023 13:18 3,2 C 3,9 C -0,6 C 85 % 1026,4 hPa 0,0 l/m 0 min 0 min 137 W/m 9,7 km/h (2 Bft) 97,87 %
03.03.2023 13:20 3,2 C 3,9 C -0,6 C 85 % 1026,4 hPa 0,0 l/m 0 min 0 min 141 W/m 12,9 km/h (3 Bft) 95,65 %
03.03.2023 13:22 3,2 C 3,9 C -0,6 C 85 % 1026,4 hPa 0,0 l/m 0 min 0 min 145 W/m 12,9 km/h (3 Bft) 97,87 %
03.03.2023 13:24 3,2 C 3,9 C -0,6 C 85 % 1026,3 hPa 0,0 l/m 0 min 0 min 147 W/m 9,7 km/h (2 Bft) 97,87 %
03.03.2023 13:26 3,2 C 3,9 C 0,0 C 85 % 1026,3 hPa 0,0 l/m 0 min 0 min 153 W/m 9,7 km/h (2 Bft) 100,00 %
03.03.2023 13:28 3,2 C 3,3 C -0,6 C 85 % 1026,3 hPa 0,0 l/m 0 min 0 min 156 W/m 9,7 km/h (2 Bft) 100,00 %
03.03.2023 13:30 3,2 C 3,9 C 0,0 C 85 % 1026,3 hPa 0,0 l/m 0 min 0 min 168 W/m 6,4 km/h (2 Bft) 100,00 %
03.03.2023 13:32 3,2 C 3,9 C 0,0 C 85 % 1026,3 hPa 0,0 l/m 0 min 0 min 171 W/m 6,4 km/h (2 Bft) 100,00 %
03.03.2023 13:34 3,2 C 4,4 C 0,0 C 85 % 1026,3 hPa 0,0 l/m 0 min 0 min 169 W/m 9,7 km/h (2 Bft) 97,83 %
03.03.2023 13:36 3,3 C 4,4 C 0,0 C 85 % 1026,3 hPa 0,0 l/m 0 min 0 min 167 W/m 9,7 km/h (2 Bft) 93,62 %
03.03.2023 13:38 3,3 C 4,4 C 0,0 C 85 % 1026,3 hPa 0,0 l/m 0 min 0 min 179 W/m 9,7 km/h (2 Bft) 100,00 %
03.03.2023 13:40 3,3 C 4,4 C 0,0 C 85 % 1026,3 hPa 0,0 l/m 0 min 0 min 182 W/m 6,4 km/h (2 Bft) 97,87 %
03.03.2023 13:42 3,4 C 4,4 C 0,0 C 85 % 1026,3 hPa 0,0 l/m 0 min 0 min 181 W/m 3,2 km/h (1 Bft) 97,87 %
03.03.2023 13:44 3,4 C 5,0 C 0,0 C 84 % 1026,3 hPa 0,0 l/m 0 min 0 min 174 W/m 6,4 km/h (2 Bft) 100,00 %
03.03.2023 13:46 3,4 C 5,0 C 0,0 C 85 % 1026,3 hPa 0,0 l/m 0 min 0 min 174 W/m 6,4 km/h (2 Bft) 95,74 %
03.03.2023 13:48 3,4 C 5,0 C 0,6 C 85 % 1026,3 hPa 0,0 l/m 0 min 0 min 177 W/m 9,7 km/h (2 Bft) 100,00 %
03.03.2023 13:50 3,5 C 5,0 C 0,0 C 85 % 1026,3 hPa 0,0 l/m 0 min 0 min 182 W/m 9,7 km/h (2 Bft) 95,74 %
03.03.2023 13:52 3,6 C 4,4 C 0,0 C 84 % 1026,3 hPa 0,0 l/m 0 min 0 min 180 W/m 6,4 km/h (2 Bft) 97,87 %
03.03.2023 13:54 3,6 C 4,4 C 0,0 C 84 % 1026,3 hPa 0,0 l/m 0 min 0 min 172 W/m 6,4 km/h (2 Bft) 95,74 %
03.03.2023 13:56 3,6 C 4,4 C 0,0 C 84 % 1026,2 hPa 0,0 l/m 0 min 0 min 168 W/m 6,4 km/h (2 Bft) 97,87 %
03.03.2023 13:58 3,6 C 4,4 C 0,0 C 84 % 1026,3 hPa 0,0 l/m 0 min 0 min 163 W/m 9,7 km/h (2 Bft) 97,87 %
03.03.2023 14:00 3,6 C 4,4 C 0,0 C 84 % 1026,3 hPa 0,0 l/m 0 min 0 min 165 W/m 9,7 km/h (2 Bft) 97,87 %
03.03.2023 14:02 3,6 C 3,9 C 0,0 C 84 % 1026,3 hPa 0,0 l/m 0 min 0 min 178 W/m 16,1 km/h (3 Bft) 95,65 %
03.03.2023 14:04 3,6 C 3,9 C 0,0 C 83 % 1026,3 hPa 0,0 l/m 0 min 0 min 175 W/m 6,4 km/h (2 Bft) 97,87 %
03.03.2023 14:06 3,6 C 3,9 C 0,0 C 84 % 1026,2 hPa 0,0 l/m 0 min 0 min 171 W/m 9,7 km/h (2 Bft) 96,61 %
03.03.2023 14:08 3,6 C 3,9 C 0,0 C 83 % 1026,2 hPa 0,0 l/m 0 min 0 min 173 W/m 6,4 km/h (2 Bft) 100,00 %
03.03.2023 14:10 3,6 C 4,4 C 0,0 C 83 % 1026,2 hPa 0,0 l/m 0 min 0 min 162 W/m 16,1 km/h (3 Bft) 95,74 %
03.03.2023 14:12 3,6 C 4,4 C 0,0 C 84 % 1026,2 hPa 0,0 l/m 0 min 0 min 153 W/m 6,4 km/h (2 Bft) 97,87 %
03.03.2023 14:14 3,6 C 4,4 C 0,0 C 83 % 1026,2 hPa 0,0 l/m 0 min 0 min 158 W/m 9,7 km/h (2 Bft) 97,83 %
03.03.2023 14:16 3,6 C 4,4 C 0,0 C 84 % 1026,3 hPa 0,0 l/m 0 min 0 min 167 W/m 9,7 km/h (2 Bft) 53,19 %
03.03.2023 14:18 3,7 C 4,4 C 0,0 C 83 % 1026,2 hPa 0,0 l/m 0 min 0 min 167 W/m 6,4 km/h (2 Bft) 97,87 %
03.03.2023 14:20 3,7 C 4,4 C 0,0 C 83 % 1026,2 hPa 0,0 l/m 0 min 0 min 154 W/m 6,4 km/h (2 Bft) 97,87 %
03.03.2023 14:22 3,7 C 4,4 C 0,0 C 83 % 1026,3 hPa 0,0 l/m 0 min 0 min 153 W/m 12,9 km/h (3 Bft) 100,00 %
03.03.2023 14:24 3,7 C 4,4 C 0,0 C 83 % 1026,2 hPa 0,0 l/m 0 min 0 min 158 W/m 12,9 km/h (3 Bft) 97,87 %
03.03.2023 14:26 3,7 C 4,4 C 0,0 C 83 % 1026,2 hPa 0,0 l/m 0 min 0 min 151 W/m 9,7 km/h (2 Bft) 97,87 %
03.03.2023 14:28 3,7 C 3,9 C 0,0 C 83 % 1026,2 hPa 0,0 l/m 0 min 0 min 155 W/m 9,7 km/h (2 Bft) 95,65 %
03.03.2023 14:30 3,7 C 4,4 C 0,0 C 83 % 1026,2 hPa 0,0 l/m 0 min 0 min 164 W/m 12,9 km/h (3 Bft) 97,87 %
03.03.2023 14:32 3,8 C 4,4 C 0,0 C 83 % 1026,3 hPa 0,0 l/m 0 min 0 min 189 W/m 6,4 km/h (2 Bft) 97,87 %
03.03.2023 14:34 3,8 C 5,0 C 0,6 C 83 % 1026,2 hPa 0,0 l/m 0 min 0 min 216 W/m 6,4 km/h (2 Bft) 100,00 %
03.03.2023 14:36 3,8 C 5,0 C 0,6 C 83 % 1026,2 hPa 0,0 l/m 0 min 0 min 220 W/m 6,4 km/h (2 Bft) 97,87 %
03.03.2023 14:38 3,8 C 5,0 C 0,6 C 83 % 1026,2 hPa 0,0 l/m 0 min 0 min 209 W/m 6,4 km/h (2 Bft) 97,87 %
03.03.2023 14:40 3,9 C 5,0 C 0,6 C 83 % 1026,2 hPa 0,0 l/m 0 min 0 min 186 W/m 6,4 km/h (2 Bft) 100,00 %
03.03.2023 14:42 3,9 C 5,0 C 0,6 C 83 % 1026,2 hPa 0,0 l/m 0 min 0 min 186 W/m 6,4 km/h (2 Bft) 97,83 %
03.03.2023 14:44 4,0 C 5,6 C 0,6 C 83 % 1026,2 hPa 0,0 l/m 0 min 0 min 199 W/m 3,2 km/h (1 Bft) 97,87 %
03.03.2023 14:46 4,1 C 5,0 C 0,6 C 82 % 1026,2 hPa 0,0 l/m 0 min 0 min 192 W/m 12,9 km/h (3 Bft) 97,87 %
03.03.2023 14:48 4,1 C 4,4 C 0,6 C 82 % 1026,2 hPa 0,0 l/m 0 min 0 min 173 W/m 12,9 km/h (3 Bft) 100,00 %
03.03.2023 14:50 4,1 C 5,0 C 0,6 C 82 % 1026,2 hPa 0,0 l/m 0 min 0 min 201 W/m 16,1 km/h (3 Bft) 100,00 %
03.03.2023 14:52 4,1 C 5,0 C 0,6 C 82 % 1026,1 hPa 0,0 l/m 2 min 0 min 231 W/m 9,7 km/h (2 Bft) 95,74 %
03.03.2023 14:54 4,1 C 5,6 C 0,6 C 82 % 1026,1 hPa 0,0 l/m 2 min 0 min 263 W/m 12,9 km/h (3 Bft) 95,65 %
03.03.2023 14:56 4,1 C 5,6 C 0,6 C 82 % 1026,1 hPa 0,0 l/m 2 min 0 min 258 W/m 9,7 km/h (2 Bft) 95,74 %
03.03.2023 14:58 4,2 C 6,1 C 0,6 C 82 % 1026,1 hPa 0,0 l/m 2 min 0 min 228 W/m 6,4 km/h (2 Bft) 97,87 %
03.03.2023 15:00 4,2 C 6,1 C 0,6 C 82 % 1026,0 hPa 0,0 l/m 2 min 0 min 244 W/m 9,7 km/h (2 Bft) 97,87 %
03.03.2023 15:02 4,3 C 6,7 C 1,1 C 82 % 1026,0 hPa 0,0 l/m 2 min 0 min 238 W/m 12,9 km/h (3 Bft) 95,74 %
03.03.2023 15:04 4,3 C 7,2 C 1,1 C 82 % 1026,0 hPa 0,0 l/m 2 min 0 min 222 W/m 6,4 km/h (2 Bft) 97,87 %
03.03.2023 15:06 4,4 C 7,8 C 1,1 C 82 % 1026,0 hPa 0,0 l/m 2 min 0 min 284 W/m 3,2 km/h (1 Bft) 98,28 %
03.03.2023 15:08 4,6 C 7,8 C 1,1 C 82 % 1026,0 hPa 0,0 l/m 2 min 0 min 357 W/m 9,7 km/h (2 Bft) 94,29 %
03.03.2023 15:10 4,6 C 8,3 C 1,1 C 82 % 1026,0 hPa 0,0 l/m 2 min 0 min 387 W/m 9,7 km/h (2 Bft) 95,74 %
03.03.2023 15:12 4,7 C 8,3 C 1,1 C 81 % 1026,0 hPa 0,0 l/m 2 min 0 min 346 W/m 6,4 km/h (2 Bft) 95,74 %
03.03.2023 15:14 4,8 C 8,3 C 1,1 C 81 % 1026,0 hPa 0,0 l/m 2 min 0 min 377 W/m 9,7 km/h (2 Bft) 93,62 %
03.03.2023 15:16 4,9 C 7,2 C 1,1 C 81 % 1026,0 hPa 0,0 l/m 2 min 0 min 358 W/m 12,9 km/h (3 Bft) 95,74 %
03.03.2023 15:18 4,9 C 6,7 C 1,1 C 80 % 1026,0 hPa 0,0 l/m 0 min 0 min 178 W/m 9,7 km/h (2 Bft) 95,74 %
03.03.2023 15:20 4,9 C 7,2 C 1,1 C 79 % 1026,0 hPa 0,0 l/m 2 min 0 min 329 W/m 9,7 km/h (2 Bft) 95,74 %
03.03.2023 15:22 5,0 C 7,8 C 1,1 C 79 % 1026,0 hPa 0,0 l/m 2 min 0 min 345 W/m 9,7 km/h (2 Bft) 95,65 %
03.03.2023 15:24 5,1 C 7,8 C 1,1 C 79 % 1025,9 hPa 0,0 l/m 2 min 0 min 337 W/m 9,7 km/h (2 Bft) 95,74 %
03.03.2023 15:26 5,1 C 8,3 C 1,1 C 79 % 1025,9 hPa 0,0 l/m 2 min 0 min 340 W/m 6,4 km/h (2 Bft) 95,74 %
03.03.2023 15:28 5,1 C 8,9 C 1,1 C 79 % 1025,8 hPa 0,0 l/m 2 min 0 min 350 W/m 9,7 km/h (2 Bft) 95,74 %
03.03.2023 15:30 5,2 C 8,3 C 1,1 C 79 % 1025,8 hPa 0,0 l/m 2 min 0 min 361 W/m 12,9 km/h (3 Bft) 91,49 %
03.03.2023 15:32 5,2 C 8,3 C 1,1 C 79 % 1025,8 hPa 0,0 l/m 2 min 0 min 276 W/m 6,4 km/h (2 Bft) 95,74 %
03.03.2023 15:34 5,3 C 7,8 C 1,1 C 79 % 1025,8 hPa 0,0 l/m 2 min 0 min 287 W/m 6,4 km/h (2 Bft) 93,48 %
03.03.2023 15:36 5,3 C 7,8 C 1,1 C 78 % 1025,7 hPa 0,0 l/m 2 min 0 min 323 W/m 6,4 km/h (2 Bft) 95,74 %
03.03.2023 15:38 5,4 C 7,8 C 1,1 C 78 % 1025,7 hPa 0,0 l/m 2 min 0 min 326 W/m 3,2 km/h (1 Bft) 93,62 %
03.03.2023 15:40 5,4 C 8,3 C 1,1 C 78 % 1025,7 hPa 0,0 l/m 2 min 0 min 316 W/m 6,4 km/h (2 Bft) 93,62 %
03.03.2023 15:42 5,5 C 8,3 C 1,1 C 78 % 1025,7 hPa 0,0 l/m 2 min 0 min 317 W/m 6,4 km/h (2 Bft) 95,74 %
03.03.2023 15:44 5,5 C 8,3 C 1,1 C 78 % 1025,6 hPa 0,0 l/m 2 min 0 min 309 W/m 12,9 km/h (3 Bft) 95,74 %
03.03.2023 15:46 5,5 C 7,8 C 1,1 C 78 % 1025,6 hPa 0,0 l/m 2 min 0 min 305 W/m 12,9 km/h (3 Bft) 97,87 %
03.03.2023 15:48 5,4 C 8,3 C 0,6 C 77 % 1025,6 hPa 0,0 l/m 2 min 0 min 307 W/m 3,2 km/h (1 Bft) 95,65 %
03.03.2023 15:50 5,5 C 7,8 C 0,6 C 77 % 1025,6 hPa 0,0 l/m 2 min 0 min 302 W/m 6,4 km/h (2 Bft) 95,74 %
03.03.2023 15:52 5,5 C 7,2 C 1,1 C 77 % 1025,5 hPa 0,0 l/m 2 min 0 min 299 W/m 12,9 km/h (3 Bft) 97,87 %
03.03.2023 15:54 5,5 C 7,2 C 1,1 C 77 % 1025,6 hPa 0,0 l/m 2 min 0 min 308 W/m 6,4 km/h (2 Bft) 97,87 %
03.03.2023 15:56 5,5 C 8,3 C 1,1 C 77 % 1025,5 hPa 0,0 l/m 2 min 0 min 304 W/m 16,1 km/h (3 Bft) 97,87 %
03.03.2023 15:58 5,6 C 8,3 C 1,1 C 77 % 1025,5 hPa 0,0 l/m 2 min 0 min 265 W/m 12,9 km/h (3 Bft) 97,87 %
03.03.2023 16:00 5,6 C 8,3 C 1,1 C 77 % 1025,5 hPa 0,0 l/m 2 min 0 min 278 W/m 9,7 km/h (2 Bft) 97,87 %
03.03.2023 16:02 5,6 C 7,8 C 1,1 C 77 % 1025,5 hPa 0,0 l/m 2 min 0 min 276 W/m 6,4 km/h (2 Bft) 95,65 %
03.03.2023 16:04 5,6 C 7,8 C 1,1 C 77 % 1025,5 hPa 0,0 l/m 2 min 0 min 260 W/m 12,9 km/h (3 Bft) 97,87 %
03.03.2023 16:06 5,7 C 7,2 C 1,1 C 77 % 1025,5 hPa 0,0 l/m 2 min 0 min 246 W/m 12,9 km/h (3 Bft) 100,00 %
03.03.2023 16:08 5,7 C 7,2 C 1,1 C 77 % 1025,5 hPa 0,0 l/m 2 min 0 min 248 W/m 12,9 km/h (3 Bft) 100,00 %
03.03.2023 16:10 5,7 C 7,8 C 1,1 C 77 % 1025,5 hPa 0,0 l/m 2 min 0 min 236 W/m 9,7 km/h (2 Bft) 97,87 %
03.03.2023 16:12 5,7 C 7,2 C 1,1 C 77 % 1025,5 hPa 0,0 l/m 2 min 0 min 225 W/m 6,4 km/h (2 Bft) 100,00 %
03.03.2023 16:14 5,7 C 6,7 C 1,1 C 76 % 1025,4 hPa 0,0 l/m 2 min 0 min 213 W/m 12,9 km/h (3 Bft) 97,87 %
03.03.2023 16:16 5,7 C 6,7 C 1,1 C 77 % 1025,4 hPa 0,0 l/m 2 min 0 min 216 W/m 9,7 km/h (2 Bft) 97,83 %
03.03.2023 16:18 5,7 C 6,1 C 1,1 C 77 % 1025,4 hPa 0,0 l/m 2 min 0 min 240 W/m 12,9 km/h (3 Bft) 97,87 %
03.03.2023 16:20 5,7 C 6,1 C 1,1 C 77 % 1025,4 hPa 0,0 l/m 2 min 0 min 227 W/m 12,9 km/h (3 Bft) 100,00 %
03.03.2023 16:22 5,7 C 5,6 C 1,1 C 77 % 1025,4 hPa 0,0 l/m 2 min 0 min 227 W/m 9,7 km/h (2 Bft) 97,87 %
03.03.2023 16:24 5,7 C 5,6 C 1,1 C 77 % 1025,4 hPa 0,0 l/m 2 min 0 min 221 W/m 3,2 km/h (1 Bft) 97,87 %
03.03.2023 16:26 5,7 C 6,1 C 1,1 C 77 % 1025,4 hPa 0,0 l/m 2 min 0 min 218 W/m 9,7 km/h (2 Bft) 97,87 %
03.03.2023 16:28 5,7 C 6,1 C 1,1 C 77 % 1025,4 hPa 0,0 l/m 2 min 0 min 213 W/m 3,2 km/h (1 Bft) 95,74 %
03.03.2023 16:30 5,7 C 6,1 C 1,1 C 77 % 1025,4 hPa 0,0 l/m 2 min 0 min 208 W/m 16,1 km/h (3 Bft) 97,83 %
03.03.2023 16:32 5,7 C 6,1 C 1,1 C 77 % 1025,4 hPa 0,0 l/m 2 min 0 min 202 W/m 6,4 km/h (2 Bft) 97,87 %
03.03.2023 16:34 5,7 C 6,1 C 1,1 C 77 % 1025,3 hPa 0,0 l/m 2 min 0 min 207 W/m 9,7 km/h (2 Bft) 95,74 %
03.03.2023 16:36 5,7 C 6,1 C 1,1 C 77 % 1025,3 hPa 0,0 l/m 2 min 0 min 201 W/m 16,1 km/h (3 Bft) 97,87 %
03.03.2023 16:38 5,7 C 5,6 C 1,1 C 77 % 1025,3 hPa 0,0 l/m 2 min 0 min 140 W/m 9,7 km/h (2 Bft) 95,74 %
03.03.2023 16:40 5,7 C 5,6 C 1,1 C 77 % 1025,3 hPa 0,0 l/m 0 min 0 min 108 W/m 6,4 km/h (2 Bft) 97,87 %
03.03.2023 16:42 5,7 C 5,6 C 1,1 C 77 % 1025,3 hPa 0,0 l/m 0 min 0 min 104 W/m 3,2 km/h (1 Bft) 97,87 %
03.03.2023 16:44 5,7 C 5,6 C 1,1 C 77 % 1025,3 hPa 0,0 l/m 0 min 0 min 105 W/m 6,4 km/h (2 Bft) 97,83 %
03.03.2023 16:46 5,6 C 5,6 C 1,1 C 77 % 1025,2 hPa 0,0 l/m 0 min 0 min 101 W/m 9,7 km/h (2 Bft) 95,74 %
03.03.2023 16:48 5,6 C 5,6 C 1,1 C 77 % 1025,2 hPa 0,0 l/m 0 min 0 min 97 W/m 6,4 km/h (2 Bft) 97,87 %
03.03.2023 16:50 5,6 C 5,6 C 1,1 C 77 % 1025,2 hPa 0,0 l/m 0 min 0 min 103 W/m 6,4 km/h (2 Bft) 100,00 %
03.03.2023 16:52 5,6 C 5,6 C 1,1 C 78 % 1025,1 hPa 0,0 l/m 2 min 0 min 104 W/m 12,9 km/h (3 Bft) 97,87 %
03.03.2023 16:54 5,6 C 5,6 C 1,1 C 78 % 1025,1 hPa 0,0 l/m 2 min 0 min 106 W/m 12,9 km/h (3 Bft) 100,00 %
03.03.2023 16:56 5,6 C 5,6 C 1,1 C 78 % 1025,1 hPa 0,0 l/m 2 min 0 min 102 W/m 6,4 km/h (2 Bft) 97,83 %
03.03.2023 16:58 5,6 C 5,6 C 1,1 C 78 % 1025,1 hPa 0,0 l/m 2 min 0 min 105 W/m 6,4 km/h (2 Bft) 100,00 %
03.03.2023 17:00 5,6 C 5,6 C 1,1 C 78 % 1025,1 hPa 0,0 l/m 2 min 0 min 107 W/m 6,4 km/h (2 Bft) 100,00 %
03.03.2023 17:02 5,6 C 5,6 C 1,1 C 78 % 1025,1 hPa 0,0 l/m 2 min 0 min 100 W/m 9,7 km/h (2 Bft) 100,00 %
03.03.2023 17:04 5,6 C 5,6 C 1,1 C 78 % 1025,1 hPa 0,0 l/m 0 min 0 min 87 W/m 9,7 km/h (2 Bft) 100,00 %
03.03.2023 17:06 5,6 C 5,6 C 1,1 C 78 % 1025,1 hPa 0,0 l/m 0 min 0 min 81 W/m 6,4 km/h (2 Bft) 100,00 %
03.03.2023 17:08 5,6 C 5,6 C 1,1 C 78 % 1025,1 hPa 0,0 l/m 0 min 0 min 80 W/m 3,2 km/h (1 Bft) 100,00 %
03.03.2023 17:10 5,6 C 5,6 C 1,1 C 78 % 1025,0 hPa 0,0 l/m 0 min 0 min 80 W/m 6,4 km/h (2 Bft) 100,00 %
03.03.2023 17:12 5,6 C 5,6 C 1,1 C 78 % 1025,1 hPa 0,0 l/m 0 min 0 min 74 W/m 6,4 km/h (2 Bft) 100,00 %
03.03.2023 17:14 5,6 C 5,6 C 1,1 C 78 % 1025,1 hPa 0,0 l/m 0 min 0 min 74 W/m 6,4 km/h (2 Bft) 100,00 %
03.03.2023 17:16 5,6 C 5,6 C 1,1 C 78 % 1025,0 hPa 0,0 l/m 0 min 0 min 71 W/m 3,2 km/h (1 Bft) 100,00 %
03.03.2023 17:18 5,6 C 5,6 C 1,1 C 78 % 1025,0 hPa 0,0 l/m 0 min 0 min 63 W/m 6,4 km/h (2 Bft) 59,57 %
03.03.2023 17:20 5,6 C 5,6 C 1,1 C 77 % 1025,0 hPa 0,0 l/m 0 min 0 min 62 W/m 6,4 km/h (2 Bft) 97,37 %
03.03.2023 17:22 5,6 C 5,6 C 1,1 C 78 % 1025,1 hPa 0,0 l/m 0 min 0 min 62 W/m 12,9 km/h (3 Bft) 97,87 %
03.03.2023 17:24 5,6 C 5,6 C 1,1 C 78 % 1025,1 hPa 0,0 l/m 0 min 0 min 59 W/m 6,4 km/h (2 Bft) 97,83 %
03.03.2023 17:26 5,6 C 5,0 C 1,1 C 78 % 1025,1 hPa 0,0 l/m 0 min 0 min 60 W/m 9,7 km/h (2 Bft) 97,87 %
03.03.2023 17:28 5,6 C 5,0 C 1,1 C 78 % 1025,1 hPa 0,0 l/m 2 min 0 min 60 W/m 16,1 km/h (3 Bft) 100,00 %
03.03.2023 17:30 5,6 C 5,0 C 1,1 C 78 % 1025,2 hPa 0,0 l/m 2 min 0 min 66 W/m 9,7 km/h (2 Bft) 95,74 %
03.03.2023 17:32 5,6 C 5,0 C 1,1 C 78 % 1025,2 hPa 0,0 l/m 2 min 0 min 67 W/m 9,7 km/h (2 Bft) 100,00 %
03.03.2023 17:34 5,6 C 5,0 C 1,1 C 78 % 1025,2 hPa 0,0 l/m 2 min 0 min 67 W/m 6,4 km/h (2 Bft) 100,00 %
03.03.2023 17:36 5,6 C 5,6 C 1,1 C 78 % 1025,2 hPa 0,0 l/m 2 min 0 min 65 W/m 9,7 km/h (2 Bft) 100,00 %
03.03.2023 17:38 5,6 C 5,6 C 1,1 C 78 % 1025,2 hPa 0,0 l/m 2 min 0 min 63 W/m 9,7 km/h (2 Bft) 100,00 %
03.03.2023 17:40 5,6 C 5,0 C 1,1 C 78 % 1025,1 hPa 0,0 l/m 2 min 0 min 60 W/m 12,9 km/h (3 Bft) 97,87 %
03.03.2023 17:42 5,6 C 5,0 C 1,1 C 78 % 1025,2 hPa 0,0 l/m 2 min 0 min 57 W/m 12,9 km/h (3 Bft) 100,00 %
03.03.2023 17:44 5,6 C 5,0 C 1,1 C 78 % 1025,2 hPa 0,0 l/m 2 min 0 min 53 W/m 6,4 km/h (2 Bft) 97,87 %
03.03.2023 17:46 5,6 C 5,0 C 1,1 C 79 % 1025,1 hPa 0,0 l/m 2 min 0 min 48 W/m 12,9 km/h (3 Bft) 97,87 %
03.03.2023 17:48 5,6 C 5,0 C 1,1 C 79 % 1025,1 hPa 0,0 l/m 2 min 0 min 44 W/m 12,9 km/h (3 Bft) 95,74 %
03.03.2023 17:50 5,5 C 5,0 C 1,1 C 79 % 1025,2 hPa 0,0 l/m 2 min 0 min 42 W/m 9,7 km/h (2 Bft) 97,83 %
03.03.2023 17:52 5,5 C 5,0 C 1,1 C 79 % 1025,2 hPa 0,0 l/m 2 min 0 min 40 W/m 9,7 km/h (2 Bft) 97,87 %
03.03.2023 17:54 5,5 C 5,0 C 1,1 C 79 % 1025,3 hPa 0,0 l/m 2 min 0 min 36 W/m 3,2 km/h (1 Bft) 93,62 %
03.03.2023 17:56 5,5 C 5,0 C 1,1 C 79 % 1025,3 hPa 0,0 l/m 2 min 0 min 32 W/m 6,4 km/h (2 Bft) 97,87 %
03.03.2023 17:58 5,4 C 4,4 C 0,6 C 79 % 1025,3 hPa 0,0 l/m 2 min 0 min 28 W/m 6,4 km/h (2 Bft) 97,87 %
03.03.2023 18:00 5,4 C 4,4 C 0,6 C 79 % 1025,3 hPa 0,0 l/m 2 min 0 min 26 W/m 3,2 km/h (1 Bft) 95,74 %
03.03.2023 18:02 5,4 C 4,4 C 0,6 C 79 % 1025,3 hPa 0,0 l/m 2 min 0 min 24 W/m 3,2 km/h (1 Bft) 97,87 %
03.03.2023 18:04 5,4 C 4,4 C 0,6 C 79 % 1025,4 hPa 0,0 l/m 2 min 0 min 21 W/m 3,2 km/h (1 Bft) 93,48 %
03.03.2023 18:07 5,3 C 3,9 C 0,6 C 79 % 1025,4 hPa 0,0 l/m 0 min 0 min 18 W/m 6,4 km/h (2 Bft) 94,37 %
03.03.2023 18:08 5,3 C 3,9 C 0,6 C 79 % 1025,4 hPa 0,0 l/m 0 min 0 min 16 W/m 3,2 km/h (1 Bft) 100,00 %
03.03.2023 18:12 5,2 C 3,9 C 0,0 C 80 % 1025,4 hPa 0,0 l/m 0 min 0 min 12 W/m 9,7 km/h (2 Bft) 94,64 %
03.03.2023 18:14 5,2 C 3,9 C 0,0 C 80 % 1025,4 hPa 0,0 l/m 0 min 0 min 10 W/m 6,4 km/h (2 Bft) 98,00 %
03.03.2023 18:16 5,2 C 3,9 C 0,0 C 80 % 1025,4 hPa 0,0 l/m 0 min 0 min 8 W/m 3,2 km/h (1 Bft) 95,65 %
03.03.2023 18:18 5,1 C 3,9 C 0,0 C 80 % 1025,4 hPa 0,0 l/m 0 min 0 min 7 W/m 6,4 km/h (2 Bft) 95,74 %
03.03.2023 18:20 5,1 C 3,3 C 0,0 C 80 % 1025,5 hPa 0,0 l/m 0 min 0 min 7 W/m 3,2 km/h (1 Bft) 95,74 %
03.03.2023 18:22 5,1 C 3,3 C 0,0 C 80 % 1025,5 hPa 0,0 l/m 0 min 0 min 7 W/m 9,7 km/h (2 Bft) 95,74 %
03.03.2023 18:24 5,0 C 3,3 C 0,0 C 80 % 1025,5 hPa 0,0 l/m 0 min 0 min 5 W/m 6,4 km/h (2 Bft) 97,87 %
03.03.2023 18:26 4,9 C 3,3 C -0,6 C 80 % 1025,5 hPa 0,0 l/m 0 min 0 min 5 W/m 6,4 km/h (2 Bft) 97,87 %
03.03.2023 18:28 4,9 C 3,3 C -0,6 C 81 % 1025,5 hPa 0,0 l/m 0 min 0 min 5 W/m 3,2 km/h (1 Bft) 97,87 %
03.03.2023 18:30 4,9 C 3,3 C -0,6 C 81 % 1025,5 hPa 0,0 l/m 0 min 0 min 0 W/m 3,2 km/h (1 Bft) 95,65 %
03.03.2023 18:32 4,8 C 3,3 C -0,6 C 81 % 1025,5 hPa 0,0 l/m 0 min 0 min 0 W/m 9,7 km/h (2 Bft) 93,62 %
03.03.2023 18:34 4,8 C 3,3 C -0,6 C 81 % 1025,5 hPa 0,0 l/m 0 min 0 min 0 W/m 3,2 km/h (1 Bft) 97,87 %
03.03.2023 18:36 4,8 C 2,8 C -0,6 C 81 % 1025,5 hPa 0,0 l/m 0 min 0 min 0 W/m 3,2 km/h (1 Bft) 97,87 %
03.03.2023 18:38 4,7 C 2,8 C -0,6 C 81 % 1025,6 hPa 0,0 l/m 0 min 0 min 0 W/m 3,2 km/h (1 Bft) 95,74 %
03.03.2023 18:40 4,7 C 2,8 C -0,6 C 81 % 1025,6 hPa 0,0 l/m 0 min 0 min 0 W/m 3,2 km/h (1 Bft) 100,00 %
03.03.2023 18:42 4,6 C 2,8 C -1,1 C 81 % 1025,6 hPa 0,0 l/m 0 min 0 min 0 W/m 3,2 km/h (1 Bft) 100,00 %
03.03.2023 18:44 4,6 C 2,8 C -1,1 C 81 % 1025,6 hPa 0,0 l/m 0 min 0 min 0 W/m 3,2 km/h (1 Bft) 100,00 %
03.03.2023 18:46 4,6 C 2,8 C -1,1 C 81 % 1025,7 hPa 0,0 l/m 0 min 0 min 0 W/m 3,2 km/h (1 Bft) 93,62 %
03.03.2023 18:48 4,5 C 2,2 C -1,1 C 81 % 1025,7 hPa 0,0 l/m 0 min 0 min 0 W/m 0,0 km/h (0 Bft) 97,87 %
03.03.2023 18:50 4,4 C 2,2 C -1,7 C 81 % 1025,7 hPa 0,0 l/m 0 min 0 min 0 W/m 0,0 km/h (0 Bft) 97,87 %
03.03.2023 18:52 4,4 C 2,2 C -1,7 C 81 % 1025,7 hPa 0,0 l/m 0 min 0 min 0 W/m 0,0 km/h (0 Bft) 97,87 %
03.03.2023 18:54 4,3 C 2,2 C -1,7 C 81 % 1025,8 hPa 0,0 l/m 0 min 0 min 0 W/m 0,0 km/h (0 Bft) 97,87 %
03.03.2023 18:56 4,3 C 2,2 C -1,7 C 81 % 1025,8 hPa 0,0 l/m 0 min 0 min 0 W/m 0,0 km/h (0 Bft) 97,83 %
03.03.2023 18:58 4,3 C 1,7 C -1,7 C 81 % 1025,8 hPa 0,0 l/m 0 min 0 min 0 W/m 0,0 km/h (0 Bft) 97,87 %
03.03.2023 19:00 4,2 C 1,7 C -2,2 C 81 % 1025,8 hPa 0,0 l/m 0 min 0 min 0 W/m 0,0 km/h (0 Bft) 95,74 %
03.03.2023 19:02 4,2 C 1,7 C -2,2 C 81 % 1025,8 hPa 0,0 l/m 0 min 0 min 0 W/m 0,0 km/h (0 Bft) 97,92 %
03.03.2023 19:04 4,1 C 1,7 C -2,2 C 81 % 1025,8 hPa 0,0 l/m 0 min 0 min 0 W/m 0,0 km/h (0 Bft) 93,62 %
03.03.2023 19:06 4,1 C 1,7 C -2,2 C 81 % 1025,9 hPa 0,0 l/m 0 min 0 min 0 W/m 0,0 km/h (0 Bft) 98,18 %
03.03.2023 19:08 4,0 C 1,7 C -2,2 C 81 % 1025,8 hPa 0,0 l/m 0 min 0 min 0 W/m 0,0 km/h (0 Bft) 97,14 %
03.03.2023 19:10 3,9 C 1,7 C -2,2 C 81 % 1025,8 hPa 0,0 l/m 0 min 0 min 0 W/m 0,0 km/h (0 Bft) 97,87 %
03.03.2023 19:12 3,9 C 1,7 C -2,2 C 81 % 1025,8 hPa 0,0 l/m 0 min 0 min 0 W/m 0,0 km/h (0 Bft) 97,87 %
03.03.2023 19:14 3,8 C 1,1 C -2,2 C 81 % 1025,8 hPa 0,0 l/m 0 min 0 min 0 W/m 0,0 km/h (0 Bft) 98,00 %
03.03.2023 19:16 3,8 C 1,1 C -2,2 C 81 % 1025,8 hPa 0,0 l/m 0 min 0 min 0 W/m 0,0 km/h (0 Bft) 97,87 %
03.03.2023 19:18 3,7 C 1,1 C -2,2 C 81 % 1025,8 hPa 0,0 l/m 0 min 0 min 0 W/m 0,0 km/h (0 Bft) 97,87 %
03.03.2023 19:20 3,7 C 1,1 C -2,8 C 81 % 1025,8 hPa 0,0 l/m 0 min 0 min 0 W/m 3,2 km/h (1 Bft) 89,36 %
03.03.2023 19:22 3,6 C 1,1 C -2,8 C 81 % 1025,8 hPa 0,0 l/m 0 min 0 min 0 W/m 3,2 km/h (1 Bft) 97,87 %
03.03.2023 19:24 3,6 C 1,1 C -2,8 C 82 % 1025,8 hPa 0,0 l/m 0 min 0 min 0 W/m 3,2 km/h (1 Bft) 97,83 %
03.03.2023 19:26 3,5 C 1,1 C -2,8 C 82 % 1025,8 hPa 0,0 l/m 0 min 0 min 0 W/m 0,0 km/h (0 Bft) 97,87 %
03.03.2023 19:28 3,4 C 1,1 C -2,8 C 82 % 1025,8 hPa 0,0 l/m 0 min 0 min 0 W/m 0,0 km/h (0 Bft) 96,30 %
03.03.2023 19:30 3,4 C 1,1 C -2,8 C 82 % 1025,8 hPa 0,0 l/m 0 min 0 min 0 W/m 0,0 km/h (0 Bft) 95,65 %
03.03.2023 19:32 3,3 C 1,1 C -2,8 C 82 % 1025,8 hPa 0,0 l/m 0 min 0 min 0 W/m 3,2 km/h (1 Bft) 97,14 %
03.03.2023 19:34 3,3 C 1,1 C -2,8 C 82 % 1025,8 hPa 0,0 l/m 0 min 0 min 0 W/m 0,0 km/h (0 Bft) 96,08 %
03.03.2023 19:36 3,2 C 1,1 C -2,8 C 82 % 1025,8 hPa 0,0 l/m 0 min 0 min 0 W/m 0,0 km/h (0 Bft) 95,74 %
03.03.2023 19:38 3,2 C 1,1 C -2,8 C 82 % 1025,8 hPa 0,0 l/m 0 min 0 min 0 W/m 0,0 km/h (0 Bft) 93,62 %
03.03.2023 19:40 3,1 C 1,1 C -2,8 C 82 % 1025,9 hPa 0,0 l/m 0 min 0 min 0 W/m 0,0 km/h (0 Bft) 95,74 %
03.03.2023 19:42 3,1 C 1,7 C -2,2 C 83 % 1026,0 hPa 0,0 l/m 0 min 0 min 0 W/m 3,2 km/h (1 Bft) 95,74 %
03.03.2023 19:44 3,1 C 1,7 C -2,2 C 83 % 1025,9 hPa 0,0 l/m 0 min 0 min 0 W/m 0,0 km/h (0 Bft) 93,62 %
03.03.2023 19:46 3,0 C 1,7 C -2,2 C 84 % 1025,9 hPa 0,0 l/m 0 min 0 min 0 W/m 0,0 km/h (0 Bft) 95,45 %
03.03.2023 19:48 3,0 C 1,7 C -2,2 C 84 % 1025,9 hPa 0,0 l/m 0 min 0 min 0 W/m 0,0 km/h (0 Bft) 93,62 %
03.03.2023 19:50 2,9 C 1,7 C -2,2 C 84 % 1025,9 hPa 0,0 l/m 0 min 0 min 0 W/m 0,0 km/h (0 Bft) 97,87 %
03.03.2023 19:52 2,9 C 1,7 C -1,7 C 84 % 1025,9 hPa 0,0 l/m 0 min 0 min 0 W/m 3,2 km/h (1 Bft) 93,62 %
03.03.2023 19:54 2,9 C 1,7 C -1,7 C 85 % 1025,9 hPa 0,0 l/m 0 min 0 min 0 W/m 0,0 km/h (0 Bft) 95,74 %
03.03.2023 19:56 2,8 C 1,7 C -1,7 C 85 % 1026,0 hPa 0,0 l/m 0 min 0 min 0 W/m 3,2 km/h (1 Bft) 97,87 %
03.03.2023 19:58 2,8 C 2,2 C -1,7 C 85 % 1025,9 hPa 0,0 l/m 0 min 0 min 0 W/m 9,7 km/h (2 Bft) 97,83 %
03.03.2023 20:00 2,8 C 2,2 C -1,7 C 85 % 1026,0 hPa 0,0 l/m 0 min 0 min 0 W/m 3,2 km/h (1 Bft) 95,74 %
03.03.2023 20:02 2,8 C 2,2 C -1,7 C 86 % 1026,0 hPa 0,0 l/m 0 min 0 min 0 W/m 3,2 km/h (1 Bft) 97,87 %
03.03.2023 20:04 2,8 C 2,2 C -1,1 C 86 % 1026,0 hPa 0,0 l/m 0 min 0 min 0 W/m 0,0 km/h (0 Bft) 95,74 %
03.03.2023 20:06 2,9 C 2,2 C -1,1 C 87 % 1026,0 hPa 0,0 l/m 0 min 0 min 0 W/m 0,0 km/h (0 Bft) 98,31 %
03.03.2023 20:08 2,9 C 2,2 C -1,1 C 87 % 1026,0 hPa 0,0 l/m 0 min 0 min 0 W/m 0,0 km/h (0 Bft) 100,00 %
03.03.2023 20:10 2,9 C 2,2 C -1,1 C 87 % 1026,0 hPa 0,0 l/m 0 min 0 min 0 W/m 3,2 km/h (1 Bft) 97,83 %
03.03.2023 20:12 2,9 C 2,2 C -1,1 C 87 % 1026,0 hPa 0,0 l/m 0 min 0 min 0 W/m 3,2 km/h (1 Bft) 95,74 %
03.03.2023 20:14 2,9 C 2,8 C -1,1 C 87 % 1026,0 hPa 0,0 l/m 0 min 0 min 0 W/m 3,2 km/h (1 Bft) 97,87 %
03.03.2023 20:16 2,9 C 2,8 C -1,1 C 87 % 1026,0 hPa 0,0 l/m 0 min 0 min 0 W/m 0,0 km/h (0 Bft) 95,74 %
03.03.2023 20:18 3,0 C 2,8 C -1,1 C 87 % 1026,0 hPa 0,0 l/m 0 min 0 min 0 W/m 3,2 km/h (1 Bft) 97,87 %
03.03.2023 20:20 3,0 C 2,8 C -1,1 C 88 % 1026,1 hPa 0,0 l/m 0 min 0 min 0 W/m 3,2 km/h (1 Bft) 95,74 %
03.03.2023 20:22 3,1 C 2,8 C -1,1 C 88 % 1026,1 hPa 0,0 l/m 0 min 0 min 0 W/m 3,2 km/h (1 Bft) 100,00 %
03.03.2023 20:24 3,1 C 2,8 C -1,1 C 88 % 1026,1 hPa 0,0 l/m 0 min 0 min 0 W/m 0,0 km/h (0 Bft) 100,00 %
03.03.2023 20:26 3,1 C 2,8 C -1,1 C 88 % 1026,1 hPa 0,0 l/m 0 min 0 min 0 W/m 0,0 km/h (0 Bft) 100,00 %
03.03.2023 20:28 3,1 C 2,8 C -1,1 C 88 % 1026,1 hPa 0,0 l/m 0 min 0 min 0 W/m 0,0 km/h (0 Bft) 100,00 %
03.03.2023 20:30 3,1 C 2,8 C -1,1 C 88 % 1026,1 hPa 0,0 l/m 0 min 0 min 0 W/m 0,0 km/h (0 Bft) 100,00 %
03.03.2023 20:32 3,1 C 2,8 C -1,1 C 88 % 1026,1 hPa 0,0 l/m 0 min 0 min 0 W/m 0,0 km/h (0 Bft) 97,92 %
03.03.2023 20:34 3,1 C 2,8 C -1,1 C 88 % 1026,1 hPa 0,0 l/m 0 min 0 min 0 W/m 0,0 km/h (0 Bft) 100,00 %
03.03.2023 20:36 3,1 C 2,8 C -1,1 C 88 % 1026,1 hPa 0,0 l/m 0 min 0 min 0 W/m 0,0 km/h (0 Bft) 100,00 %
03.03.2023 20:38 3,1 C 2,8 C -1,1 C 88 % 1026,1 hPa 0,0 l/m 0 min 0 min 0 W/m 0,0 km/h (0 Bft) 100,00 %
03.03.2023 20:40 3,1 C 2,8 C -1,1 C 88 % 1026,1 hPa 0,0 l/m 0 min 0 min 0 W/m 0,0 km/h (0 Bft) 100,00 %
03.03.2023 20:42 3,1 C 2,8 C -1,1 C 88 % 1026,1 hPa 0,0 l/m 0 min 0 min 0 W/m 3,2 km/h (1 Bft) 100,00 %
03.03.2023 20:44 3,1 C 2,8 C -1,1 C 88 % 1026,1 hPa 0,0 l/m 0 min 0 min 0 W/m 3,2 km/h (1 Bft) 100,00 %
03.03.2023 20:46 3,1 C 2,8 C -1,1 C 88 % 1026,1 hPa 0,0 l/m 0 min 0 min 0 W/m 0,0 km/h (0 Bft) 100,00 %
03.03.2023 20:48 3,1 C 2,8 C -1,1 C 88 % 1026,1 hPa 0,0 l/m 0 min 0 min 0 W/m 3,2 km/h (1 Bft) 100,00 %
03.03.2023 20:50 3,2 C 2,8 C -0,6 C 88 % 1026,1 hPa 0,0 l/m 0 min 0 min 0 W/m 3,2 km/h (1 Bft) 100,00 %
03.03.2023 20:52 3,2 C 2,8 C -0,6 C 88 % 1026,1 hPa 0,0 l/m 0 min 0 min 0 W/m 0,0 km/h (0 Bft) 100,00 %
03.03.2023 20:54 3,2 C 2,8 C -0,6 C 88 % 1026,1 hPa 0,0 l/m 0 min 0 min 0 W/m 3,2 km/h (1 Bft) 97,87 %
03.03.2023 20:56 3,2 C 2,8 C -0,6 C 88 % 1026,1 hPa 0,0 l/m 0 min 0 min 0 W/m 3,2 km/h (1 Bft) 100,00 %
03.03.2023 20:58 3,2 C 2,8 C -0,6 C 88 % 1026,0 hPa 0,0 l/m 0 min 0 min 0 W/m 3,2 km/h (1 Bft) 100,00 %
03.03.2023 21:00 3,2 C 2,8 C -0,6 C 89 % 1026,0 hPa 0,0 l/m 0 min 0 min 0 W/m 0,0 km/h (0 Bft) 97,87 %
03.03.2023 21:02 3,3 C 2,8 C -0,6 C 88 % 1026,0 hPa 0,0 l/m 0 min 0 min 0 W/m 3,2 km/h (1 Bft) 100,00 %
03.03.2023 21:04 3,3 C 2,8 C -0,6 C 88 % 1026,1 hPa 0,0 l/m 0 min 0 min 0 W/m 0,0 km/h (0 Bft) 100,00 %
03.03.2023 21:06 3,3 C 2,8 C -0,6 C 88 % 1026,1 hPa 0,0 l/m 0 min 0 min 0 W/m 0,0 km/h (0 Bft) 100,00 %
03.03.2023 21:08 3,3 C 2,8 C -0,6 C 88 % 1026,1 hPa 0,0 l/m 0 min 0 min 0 W/m 3,2 km/h (1 Bft) 100,00 %
03.03.2023 21:10 3,3 C 2,8 C -0,6 C 88 % 1026,1 hPa 0,0 l/m 0 min 0 min 0 W/m 0,0 km/h (0 Bft) 97,87 %
03.03.2023 21:12 3,3 C 2,8 C -0,6 C 88 % 1026,1 hPa 0,0 l/m 0 min 0 min 0 W/m 0,0 km/h (0 Bft) 95,74 %
03.03.2023 21:14 3,3 C 2,8 C -0,6 C 88 % 1026,0 hPa 0,0 l/m 0 min 0 min 0 W/m 0,0 km/h (0 Bft) 95,65 %
03.03.2023 21:16 3,3 C 2,8 C -0,6 C 88 % 1026,0 hPa 0,0 l/m 0 min 0 min 0 W/m 0,0 km/h (0 Bft) 97,87 %
03.03.2023 21:18 3,3 C 2,8 C -0,6 C 88 % 1026,1 hPa 0,0 l/m 0 min 0 min 0 W/m 0,0 km/h (0 Bft) 95,74 %
03.03.2023 21:20 3,3 C 2,8 C -0,6 C 88 % 1026,1 hPa 0,0 l/m 0 min 0 min 0 W/m 0,0 km/h (0 Bft) 97,87 %
03.03.2023 21:22 3,3 C 2,8 C -0,6 C 88 % 1026,1 hPa 0,0 l/m 0 min 0 min 0 W/m 0,0 km/h (0 Bft) 97,87 %
03.03.2023 21:24 3,3 C 2,8 C -0,6 C 88 % 1026,1 hPa 0,0 l/m 0 min 0 min 0 W/m 0,0 km/h (0 Bft) 97,87 %
03.03.2023 21:26 3,3 C 2,8 C -0,6 C 88 % 1026,1 hPa 0,0 l/m 0 min 0 min 0 W/m 0,0 km/h (0 Bft) 97,87 %
03.03.2023 21:28 3,3 C 2,8 C -0,6 C 88 % 1026,1 hPa 0,0 l/m 0 min 0 min 0 W/m 0,0 km/h (0 Bft) 97,83 %
03.03.2023 21:30 3,3 C 2,8 C -0,6 C 88 % 1026,1 hPa 0,0 l/m 0 min 0 min 0 W/m 0,0 km/h (0 Bft) 97,87 %
03.03.2023 21:32 3,3 C 2,8 C -0,6 C 88 % 1026,1 hPa 0,0 l/m 0 min 0 min 0 W/m 0,0 km/h (0 Bft) 97,87 %
03.03.2023 21:34 3,3 C 2,8 C -0,6 C 88 % 1026,2 hPa 0,0 l/m 0 min 0 min 0 W/m 0,0 km/h (0 Bft) 97,87 %
03.03.2023 21:36 3,3 C 3,3 C -0,6 C 89 % 1026,2 hPa 0,0 l/m 0 min 0 min 0 W/m 3,2 km/h (1 Bft) 95,74 %
03.03.2023 21:38 3,3 C 3,3 C -0,6 C 88 % 1026,2 hPa 0,0 l/m 0 min 0 min 0 W/m 3,2 km/h (1 Bft) 93,62 %
03.03.2023 21:40 3,4 C 3,3 C -0,6 C 89 % 1026,3 hPa 0,0 l/m 0 min 0 min 0 W/m 3,2 km/h (1 Bft) 95,74 %
03.03.2023 21:42 3,4 C 3,3 C -0,6 C 88 % 1026,3 hPa 0,0 l/m 0 min 0 min 0 W/m 3,2 km/h (1 Bft) 95,65 %
03.03.2023 21:44 3,4 C 3,3 C -0,6 C 88 % 1026,3 hPa 0,0 l/m 0 min 0 min 0 W/m 0,0 km/h (0 Bft) 93,62 %
03.03.2023 21:46 3,4 C 3,3 C -0,6 C 88 % 1026,3 hPa 0,0 l/m 0 min 0 min 0 W/m 0,0 km/h (0 Bft) 98,11 %
03.03.2023 21:48 3,4 C 3,3 C -0,6 C 89 % 1026,3 hPa 0,0 l/m 0 min 0 min 0 W/m 0,0 km/h (0 Bft) 97,87 %
03.03.2023 21:50 3,5 C 3,3 C -0,6 C 88 % 1026,3 hPa 0,0 l/m 0 min 0 min 0 W/m 3,2 km/h (1 Bft) 97,87 %
03.03.2023 21:52 3,5 C 3,3 C -0,6 C 88 % 1026,3 hPa 0,0 l/m 0 min 0 min 0 W/m 3,2 km/h (1 Bft) 97,92 %
03.03.2023 21:54 3,6 C 3,3 C -0,6 C 88 % 1026,3 hPa 0,0 l/m 0 min 0 min 0 W/m 0,0 km/h (0 Bft) 93,62 %
03.03.2023 21:56 3,6 C 3,3 C -0,6 C 88 % 1026,3 hPa 0,0 l/m 0 min 0 min 0 W/m 0,0 km/h (0 Bft) 95,65 %
03.03.2023 21:58 3,6 C 3,3 C -0,6 C 88 % 1026,4 hPa 0,0 l/m 0 min 0 min 0 W/m 3,2 km/h (1 Bft) 47,50 %
03.03.2023 22:00 3,6 C 3,3 C -0,6 C 88 % 1026,3 hPa 0,0 l/m 0 min 0 min 0 W/m 0,0 km/h (0 Bft) 100,00 %
03.03.2023 22:02 3,7 C 3,3 C -0,6 C 88 % 1026,3 hPa 0,0 l/m 0 min 0 min 0 W/m 3,2 km/h (1 Bft) 93,62 %
03.03.2023 22:04 3,8 C 3,9 C -0,6 C 88 % 1026,4 hPa 0,0 l/m 0 min 0 min 0 W/m 3,2 km/h (1 Bft) 97,87 %
03.03.2023 22:06 3,8 C 3,9 C 0,0 C 88 % 1026,4 hPa 0,0 l/m 0 min 0 min 0 W/m 3,2 km/h (1 Bft) 95,74 %
03.03.2023 22:08 3,9 C 3,9 C 0,0 C 88 % 1026,4 hPa 0,0 l/m 0 min 0 min 0 W/m 3,2 km/h (1 Bft) 95,74 %
03.03.2023 22:10 4,0 C 3,9 C 0,0 C 88 % 1026,4 hPa 0,0 l/m 0 min 0 min 0 W/m 0,0 km/h (0 Bft) 95,65 %
03.03.2023 22:12 4,1 C 3,9 C 0,0 C 88 % 1026,4 hPa 0,0 l/m 0 min 0 min 0 W/m 3,2 km/h (1 Bft) 95,74 %
03.03.2023 22:14 4,1 C 3,9 C 0,0 C 88 % 1026,4 hPa 0,0 l/m 0 min 0 min 0 W/m 0,0 km/h (0 Bft) 95,74 %
03.03.2023 22:16 4,1 C 3,9 C 0,0 C 88 % 1026,4 hPa 0,0 l/m 0 min 0 min 0 W/m 0,0 km/h (0 Bft) 97,87 %
03.03.2023 22:18 4,2 C 3,9 C 0,0 C 87 % 1026,4 hPa 0,0 l/m 0 min 0 min 0 W/m 3,2 km/h (1 Bft) 97,87 %
03.03.2023 22:20 4,2 C 3,9 C -0,6 C 87 % 1026,4 hPa 0,0 l/m 0 min 0 min 0 W/m 3,2 km/h (1 Bft) 97,92 %
03.03.2023 22:22 4,2 C 3,9 C -0,6 C 87 % 1026,4 hPa 0,0 l/m 0 min 0 min 0 W/m 6,4 km/h (2 Bft) 96,00 %
03.03.2023 22:24 4,2 C 3,9 C 0,0 C 87 % 1026,4 hPa 0,0 l/m 0 min 0 min 0 W/m 3,2 km/h (1 Bft) 97,87 %
03.03.2023 22:26 4,2 C 3,9 C 0,0 C 87 % 1026,4 hPa 0,0 l/m 0 min 0 min 0 W/m 3,2 km/h (1 Bft) 97,87 %
03.03.2023 22:28 4,2 C 3,9 C 0,0 C 87 % 1026,4 hPa 0,0 l/m 0 min 0 min 0 W/m 6,4 km/h (2 Bft) 97,87 %
03.03.2023 22:30 4,2 C 3,3 C 0,0 C 87 % 1026,4 hPa 0,0 l/m 0 min 0 min 0 W/m 6,4 km/h (2 Bft) 93,48 %
03.03.2023 22:32 4,2 C 3,3 C 0,0 C 86 % 1026,4 hPa 0,0 l/m 0 min 0 min 0 W/m 3,2 km/h (1 Bft) 97,87 %
03.03.2023 22:34 4,2 C 3,3 C 0,0 C 86 % 1026,4 hPa 0,0 l/m 0 min 0 min 0 W/m 3,2 km/h (1 Bft) 97,14 %
03.03.2023 22:36 4,1 C 3,3 C -0,6 C 86 % 1026,4 hPa 0,0 l/m 0 min 0 min 0 W/m 3,2 km/h (1 Bft) 97,87 %
03.03.2023 22:38 4,2 C 3,3 C 0,0 C 86 % 1026,4 hPa 0,0 l/m 0 min 0 min 0 W/m 3,2 km/h (1 Bft) 95,74 %
03.03.2023 22:40 4,1 C 3,3 C 0,0 C 86 % 1026,4 hPa 0,0 l/m 0 min 0 min 0 W/m 3,2 km/h (1 Bft) 97,87 %
03.03.2023 22:42 4,2 C 3,3 C -0,6 C 86 % 1026,4 hPa 0,0 l/m 0 min 0 min 0 W/m 3,2 km/h (1 Bft) 97,87 %
03.03.2023 22:44 4,2 C 3,3 C -0,6 C 86 % 1026,4 hPa 0,0 l/m 0 min 0 min 0 W/m 6,4 km/h (2 Bft) 97,87 %
03.03.2023 22:46 4,2 C 3,3 C -0,6 C 86 % 1026,4 hPa 0,0 l/m 0 min 0 min 0 W/m 3,2 km/h (1 Bft) 97,87 %
03.03.2023 22:48 4,2 C 3,3 C -0,6 C 86 % 1026,4 hPa 0,0 l/m 0 min 0 min 0 W/m 3,2 km/h (1 Bft) 95,65 %
03.03.2023 22:50 4,2 C 3,9 C -0,6 C 86 % 1026,4 hPa 0,0 l/m 0 min 0 min 0 W/m 0,0 km/h (0 Bft) 97,87 %
03.03.2023 22:52 4,2 C 3,3 C -0,6 C 86 % 1026,4 hPa 0,0 l/m 0 min 0 min 0 W/m 3,2 km/h (1 Bft) 95,74 %
03.03.2023 22:54 4,2 C 3,3 C -0,6 C 86 % 1026,4 hPa 0,0 l/m 0 min 0 min 0 W/m 3,2 km/h (1 Bft) 97,87 %
03.03.2023 22:56 4,2 C 3,3 C -0,6 C 86 % 1026,4 hPa 0,0 l/m 0 min 0 min 0 W/m 3,2 km/h (1 Bft) 95,74 %
03.03.2023 22:58 4,2 C 3,3 C -0,6 C 86 % 1026,4 hPa 0,0 l/m 0 min 0 min 0 W/m 3,2 km/h (1 Bft) 97,87 %
03.03.2023 23:00 4,2 C 3,3 C -0,6 C 86 % 1026,4 hPa 0,0 l/m 0 min 0 min 0 W/m 3,2 km/h (1 Bft) 97,87 %
03.03.2023 23:02 4,2 C 3,3 C -0,6 C 86 % 1026,4 hPa 0,0 l/m 0 min 0 min 0 W/m 3,2 km/h (1 Bft) 97,83 %
03.03.2023 23:04 4,2 C 3,3 C -0,6 C 86 % 1026,4 hPa 0,0 l/m 0 min 0 min 0 W/m 3,2 km/h (1 Bft) 97,87 %
03.03.2023 23:06 4,2 C 3,3 C -0,6 C 86 % 1026,4 hPa 0,0 l/m 0 min 0 min 0 W/m 0,0 km/h (0 Bft) 100,00 %
03.03.2023 23:08 4,1 C 3,3 C -0,6 C 86 % 1026,4 hPa 0,0 l/m 0 min 0 min 0 W/m 0,0 km/h (0 Bft) 97,14 %
03.03.2023 23:10 4,2 C 3,3 C -0,6 C 86 % 1026,4 hPa 0,0 l/m 0 min 0 min 0 W/m 3,2 km/h (1 Bft) 100,00 %
03.03.2023 23:12 4,2 C 3,3 C -0,6 C 86 % 1026,3 hPa 0,0 l/m 0 min 0 min 0 W/m 3,2 km/h (1 Bft) 97,87 %
03.03.2023 23:14 4,2 C 3,3 C -0,6 C 86 % 1026,3 hPa 0,0 l/m 0 min 0 min 0 W/m 3,2 km/h (1 Bft) 97,87 %
03.03.2023 23:16 4,2 C 3,3 C -0,6 C 86 % 1026,3 hPa 0,0 l/m 0 min 0 min 0 W/m 3,2 km/h (1 Bft) 100,00 %
03.03.2023 23:18 4,1 C 3,3 C -0,6 C 86 % 1026,4 hPa 0,0 l/m 0 min 0 min 0 W/m 3,2 km/h (1 Bft) 97,83 %
03.03.2023 23:20 4,1 C 3,3 C -0,6 C 86 % 1026,4 hPa 0,0 l/m 0 min 0 min 0 W/m 6,4 km/h (2 Bft) 95,74 %
03.03.2023 23:22 4,1 C 3,3 C -0,6 C 86 % 1026,3 hPa 0,0 l/m 0 min 0 min 0 W/m 3,2 km/h (1 Bft) 95,74 %
03.03.2023 23:24 4,1 C 3,3 C -0,6 C 86 % 1026,3 hPa 0,0 l/m 0 min 0 min 0 W/m 3,2 km/h (1 Bft) 93,62 %
03.03.2023 23:26 4,1 C 3,3 C -0,6 C 86 % 1026,3 hPa 0,0 l/m 0 min 0 min 0 W/m 6,4 km/h (2 Bft) 97,87 %
03.03.2023 23:28 4,1 C 3,3 C -0,6 C 86 % 1026,3 hPa 0,0 l/m 0 min 0 min 0 W/m 3,2 km/h (1 Bft) 91,67 %
03.03.2023 23:30 4,1 C 3,3 C -0,6 C 86 % 1026,4 hPa 0,0 l/m 0 min 0 min 0 W/m 6,4 km/h (2 Bft) 95,74 %
03.03.2023 23:32 4,1 C 3,3 C -0,6 C 86 % 1026,3 hPa 0,0 l/m 0 min 0 min 0 W/m 3,2 km/h (1 Bft) 93,88 %
03.03.2023 23:34 4,1 C 3,3 C -0,6 C 87 % 1026,4 hPa 0,0 l/m 0 min 0 min 0 W/m 6,4 km/h (2 Bft) 97,22 %
03.03.2023 23:36 4,1 C 3,3 C -0,6 C 86 % 1026,3 hPa 0,0 l/m 0 min 0 min 0 W/m 3,2 km/h (1 Bft) 95,92 %
03.03.2023 23:38 4,1 C 3,3 C -0,6 C 86 % 1026,3 hPa 0,0 l/m 0 min 0 min 0 W/m 3,2 km/h (1 Bft) 95,74 %
03.03.2023 23:40 4,1 C 3,3 C -0,6 C 86 % 1026,3 hPa 0,0 l/m 0 min 0 min 0 W/m 3,2 km/h (1 Bft) 95,74 %
03.03.2023 23:42 4,0 C 3,3 C -0,6 C 86 % 1026,4 hPa 0,0 l/m 0 min 0 min 0 W/m 3,2 km/h (1 Bft) 93,48 %
03.03.2023 23:44 4,0 C 3,3 C -0,6 C 87 % 1026,4 hPa 0,0 l/m 0 min 0 min 0 W/m 0,0 km/h (0 Bft) 95,74 %
03.03.2023 23:46 4,0 C 3,3 C -0,6 C 87 % 1026,4 hPa 0,0 l/m 0 min 0 min 0 W/m 3,2 km/h (1 Bft) 95,74 %
03.03.2023 23:48 3,9 C 3,3 C -0,6 C 86 % 1026,4 hPa 0,0 l/m 0 min 0 min 0 W/m 6,4 km/h (2 Bft) 95,74 %
03.03.2023 23:50 3,9 C 3,3 C -0,6 C 87 % 1026,4 hPa 0,0 l/m 0 min 0 min 0 W/m 6,4 km/h (2 Bft) 95,74 %
03.03.2023 23:52 3,9 C 3,3 C -0,6 C 87 % 1026,4 hPa 0,0 l/m 0 min 0 min 0 W/m 0,0 km/h (0 Bft) 95,74 %
03.03.2023 23:54 3,9 C 3,3 C -0,6 C 87 % 1026,4 hPa 0,0 l/m 0 min 0 min 0 W/m 0,0 km/h (0 Bft) 95,65 %
03.03.2023 23:56 3,9 C 3,3 C -0,6 C 87 % 1026,4 hPa 0,0 l/m 0 min 0 min 0 W/m 3,2 km/h (1 Bft) 97,87 %
03.03.2023 23:58 3,9 C 3,3 C -0,6 C 87 % 1026,3 hPa 0,0 l/m 0 min 0 min 0 W/m 6,4 km/h (2 Bft) 97,87 %
_ Min-Zeit 07:08 00:00 00:00 16:14 00:00 - - - - 18:48 11:04
Minimum _ 0,4 C 0,0 C -3,3 C 76 % 1023,4 hPa - - - - 0,0 km/h (0 Bft) 21,28 %
_ Max-Zeit 16:06 15:28 15:02 01:20 11:34 00:00 14:52 00:00 15:10 03:08 00:08
Maximum _ 5,7 C 8,9 C 1,1 C 93 % 1026,8 hPa 0,0 l/m 2 min 0 min 387 W/m 22,5 km/h
NO (4 Bft)
100,00 %
Durchschnitt _ 2,5 C 2,4 C -1,5 C 88 % 1025,4 hPa #0,0 l/m #2:36 h #0 min. 121 W/m 8,2 km/h (2 Bft) 95,12 %
© 2023 W. Hausmann